N6AMQ-1 Weather Reports


Display with metric or nautical units.
time (UTC)temp
F
wind
direction
speed
MPH
gust
MPH
rain 1hr
in
rain 24hr
in
rain mn
in
humidity
%
barometer
mb
20210926031909 64 112 0.0 1.0 0.00 0.00 0.00 60 1014.9
20210926031809 64 112 0.0 0.0 0.00 0.00 0.00 60 1014.9
20210926031709 64 112 0.0 0.0 0.00 0.00 0.00 60 1014.9
20210926031609 64 112 0.0 0.0 0.00 0.00 0.00 60 1014.9
20210926031509 64 112 0.0 0.0 0.00 0.00 0.00 60 1014.9
20210926031409 64 112 0.0 0.0 0.00 0.00 0.00 60 1014.9
20210926031309 64 112 0.0 0.0 0.00 0.00 0.00 60 1014.9
20210926031209 64 112 0.0 0.0 0.00 0.00 0.00 60 1014.9
20210926031009 64 112 0.0 0.0 0.00 0.00 0.00 60 1014.9
20210926030909 64 135 0.0 0.0 0.00 0.00 0.00 60 1014.9
20210926030809 64 135 0.0 0.0 0.00 0.00 0.00 60 1014.9
20210926030709 64 135 0.0 0.0 0.00 0.00 0.00 59 1014.9
20210926030509 64 135 0.0 0.0 0.00 0.00 0.00 59 1014.9
20210926030409 64 135 1.0 0.0 0.00 0.00 0.00 59 1014.9
20210926030309 64 135 0.0 1.0 0.00 0.00 0.00 59 1014.9
20210926030209 64 112 0.0 0.0 0.00 0.00 0.00 59 1014.9
20210926030109 64 112 1.0 0.0 0.00 0.00 0.00 59 1014.9
20210926030009 64 112 0.0 1.0 0.00 0.00 0.00 59 1014.9
20210926025909 64 112 0.0 0.0 0.00 0.00 0.00 59 1014.9
20210926025809 64 112 0.0 0.0 0.00 0.00 0.00 59 1014.9
20210926025709 64 112 0.0 0.0 0.00 0.00 0.00 59 1014.9
20210926025609 64 112 0.0 0.0 0.00 0.00 0.00 59 1014.9
20210926025509 64 112 0.0 0.0 0.00 0.00 0.00 59 1014.9
20210926025409 64 112 0.0 0.0 0.00 0.00 0.00 59 1013.9
20210926025209 64 112 0.0 0.0 0.00 0.00 0.00 59 1013.9
20210926024809 64 135 0.0 0.0 0.00 0.00 0.00 58 1013.9
20210926024709 64 135 0.0 0.0 0.00 0.00 0.00 58 1013.9
20210926024610 64 135 0.0 0.0 0.00 0.00 0.00 58 1013.9
20210926024509 64 135 1.0 0.0 0.00 0.00 0.00 58 1013.9
20210926024409 64 135 1.0 0.0 0.00 0.00 0.00 58 1013.9
20210926024309 64 135 2.0 2.0 0.00 0.00 0.00 58 1013.9
20210926024209 64 135 1.0 1.0 0.00 0.00 0.00 58 1013.9
20210926024109 64 135 1.0 1.0 0.00 0.00 0.00 58 1013.9
20210926024009 64 135 0.0 1.0 0.00 0.00 0.00 57 1013.9
20210926023909 64 135 0.0 0.0 0.00 0.00 0.00 57 1013.9
20210926023809 64 135 1.0 0.0 0.00 0.00 0.00 57 1013.9
20210926023409 65 135 1.0 1.0 0.00 0.00 0.00 57 1013.9
20210926023309 65 135 1.0 1.0 0.00 0.00 0.00 57 1013.9
20210926023109 65 135 0.0 2.0 0.00 0.00 0.00 57 1013.9
20210926023009 65 135 0.0 1.0 0.00 0.00 0.00 57 1013.9
20210926022909 65 135 1.0 0.0 0.00 0.00 0.00 57 1013.9
20210926022809 65 135 0.0 0.0 0.00 0.00 0.00 57 1013.9
20210926022709 65 135 0.0 0.0 0.00 0.00 0.00 57 1013.9
20210926022609 65 90 1.0 1.0 0.00 0.00 0.00 57 1013.9
20210926022309 65 135 2.0 2.0 0.00 0.00 0.00 56 1013.9
20210926022209 65 90 0.0 1.0 0.00 0.00 0.00 56 1013.9
20210926022109 65 90 0.0 0.0 0.00 0.00 0.00 56 1013.9
20210926022009 65 90 0.0 0.0 0.00 0.00 0.00 56 1013.9
20210926021909 65 90 0.0 0.0 0.00 0.00 0.00 56 1013.9
20210926021709 65 90 1.0 1.0 0.00 0.00 0.00 56 1013.9
20210926021609 65 90 1.0 1.0 0.00 0.00 0.00 56 1013.9
20210926021409 65 90 1.0 2.0 0.00 0.00 0.00 56 1013.9
20210926021309 65 90 0.0 0.0 0.00 0.00 0.00 56 1013.9
20210926021209 65 90 1.0 0.0 0.00 0.00 0.00 56 1013.9
20210926021109 65 90 1.0 1.0 0.00 0.00 0.00 56 1013.9
20210926020910 65 90 1.0 1.0 0.00 0.00 0.00 56 1013.9
20210926020809 65 135 1.0 2.0 0.00 0.00 0.00 55 1013.9
20210926020709 65 135 1.0 0.0 0.00 0.00 0.00 55 1013.9
20210926020609 65 68 1.0 1.0 0.00 0.00 0.00 55 1013.9
20210926020509 65 45 3.0 1.0 0.00 0.00 0.00 55 1013.9
20210926020409 66 135 2.0 3.0 0.00 0.00 0.00 55 1013.9
20210926020209 66 45 2.0 1.0 0.00 0.00 0.00 55 1013.9
20210926020109 66 90 2.0 2.0 0.00 0.00 0.00 55 1013.9
20210926020009 66 90 2.0 3.0 0.00 0.00 0.00 55 1013.9
20210926015909 66 90 2.0 2.0 0.00 0.00 0.00 55 1013.9
20210926015809 66 135 2.0 3.0 0.00 0.00 0.00 55 1013.9
20210926015709 66 90 2.0 2.0 0.00 0.00 0.00 55 1013.9
20210926015609 66 45 2.0 2.0 0.00 0.00 0.00 55 1013.9
20210926015509 66 90 2.0 2.0 0.00 0.00 0.00 55 1013.9
20210926015309 66 45 2.0 2.0 0.00 0.00 0.00 55 1013.9
20210926015209 66 45 2.0 2.0 0.00 0.00 0.00 54 1013.9
20210926015109 66 45 2.0 2.0 0.00 0.00 0.00 54 1013.9
20210926015009 66 45 2.0 2.0 0.00 0.00 0.00 54 1013.9
20210926014909 66 45 1.0 3.0 0.00 0.00 0.00 54 1013.9
20210926014809 66 45 1.0 2.0 0.00 0.00 0.00 54 1013.9
20210926014709 66 90 1.0 1.0 0.00 0.00 0.00 54 1013.9
20210926014509 66 68 2.0 4.0 0.00 0.00 0.00 54 1013.9
20210926014409 66 45 2.0 2.0 0.00 0.00 0.00 54 1013.9
20210926014309 66 90 3.0 3.0 0.00 0.00 0.00 54 1013.9
20210926014209 66 68 1.0 2.0 0.00 0.00 0.00 54 1013.9
20210926014109 66 45 1.0 1.0 0.00 0.00 0.00 54 1013.9
20210926014009 66 90 2.0 2.0 0.00 0.00 0.00 54 1013.9
20210926013909 66 45 1.0 2.0 0.00 0.00 0.00 54 1013.9
20210926013809 66 45 2.0 3.0 0.00 0.00 0.00 54 1013.9
20210926013510 66 90 2.0 2.0 0.00 0.00 0.00 54 1013.9
20210926013409 67 90 2.0 1.0 0.00 0.00 0.00 53 1013.9
20210926013209 67 90 3.0 3.0 0.00 0.00 0.00 53 1013.9
20210926013109 67 135 2.0 2.0 0.00 0.00 0.00 53 1013.9
20210926013009 67 45 2.0 3.0 0.00 0.00 0.00 53 1013.9
20210926012909 67 135 2.0 2.0 0.00 0.00 0.00 53 1013.9
20210926012809 67 90 1.0 1.0 0.00 0.00 0.00 53 1013.9
20210926012709 67 90 3.0 3.0 0.00 0.00 0.00 53 1013.9
20210926012609 67 90 4.0 4.0 0.00 0.00 0.00 53 1013.9
20210926012509 67 90 2.0 3.0 0.00 0.00 0.00 53 1013.9
20210926012409 67 68 1.0 2.0 0.00 0.00 0.00 53 1013.9
20210926012309 67 90 1.0 1.0 0.00 0.00 0.00 53 1013.9
20210926012209 67 45 2.0 1.0 0.00 0.00 0.00 53 1013.9
20210926011909 67 68 4.0 4.0 0.00 0.00 0.00 53 1013.9
20210926011809 67 90 3.0 4.0 0.00 0.00 0.00 53 1013.9
20210926011709 67 112 3.0 3.0 0.00 0.00 0.00 53 1013.9
20210926011609 67 90 3.0 3.0 0.00 0.00 0.00 53 1013.9
20210926011409 67 135 2.0 2.0 0.00 0.00 0.00 53 1013.9
20210926011309 67 68 2.0 3.0 0.00 0.00 0.00 53 1013.9
20210926011109 67 45 2.0 3.0 0.00 0.00 0.00 53 1013.9
20210926010809 67 45 2.0 3.0 0.00 0.00 0.00 53 1013.9
20210926010709 67 90 2.0 2.0 0.00 0.00 0.00 53 1013.9
20210926010609 67 90 2.0 2.0 0.00 0.00 0.00 53 1013.9
20210926010509 67 45 2.0 2.0 0.00 0.00 0.00 53 1013.9
20210926010409 67 90 3.0 2.0 0.00 0.00 0.00 53 1013.9
20210926010309 67 45 3.0 3.0 0.00 0.00 0.00 53 1013.9
20210926010209 67 68 3.0 4.0 0.00 0.00 0.00 53 1013.9
20210926010109 68 45 3.0 3.0 0.00 0.00 0.00 52 1013.9
20210926010009 68 90 3.0 4.0 0.00 0.00 0.00 52 1013.9
20210926005809 68 90 3.0 4.0 0.00 0.00 0.00 52 1013.9
20210926005709 68 0 3.0 3.0 0.00 0.00 0.00 52 1013.9
20210926005609 68 90 1.0 2.0 0.00 0.00 0.00 52 1013.9
20210926005509 68 45 1.0 1.0 0.00 0.00 0.00 52 1013.9
20210926005409 68 90 2.0 2.0 0.00 0.00 0.00 52 1013.9
20210926005309 68 45 2.0 2.0 0.00 0.00 0.00 52 1013.9
20210926005009 68 338 2.0 2.0 0.00 0.00 0.00 52 1013.9
20210926004909 68 90 2.0 4.0 0.00 0.00 0.00 52 1013.9
20210926004809 68 0 2.0 1.0 0.00 0.00 0.00 51 1013.9
20210926004709 68 45 2.0 4.0 0.00 0.00 0.00 51 1013.9
20210926004509 68 90 2.0 1.0 0.00 0.00 0.00 51 1013.9
20210926004409 68 315 2.0 3.0 0.00 0.00 0.00 51 1013.9
20210926004309 68 45 1.0 2.0 0.00 0.00 0.00 51 1013.9
20210926004209 68 0 2.0 3.0 0.00 0.00 0.00 51 1013.9
20210926004109 68 90 2.0 2.0 0.00 0.00 0.00 51 1013.9
20210926003909 68 0 1.0 2.0 0.00 0.00 0.00 51 1013.9
20210926003809 68 45 1.0 1.0 0.00 0.00 0.00 51 1013.9
20210926003709 68 45 3.0 2.0 0.00 0.00 0.00 51 1013.9
20210926003609 68 45 4.0 6.0 0.00 0.00 0.00 52 1013.9
20210926003509 68 45 2.0 3.0 0.00 0.00 0.00 52 1013.9
20210926003409 68 45 3.0 2.0 0.00 0.00 0.00 52 1013.9
20210926003309 68 0 3.0 4.0 0.00 0.00 0.00 52 1013.9
20210926003209 68 90 1.0 1.0 0.00 0.00 0.00 52 1013.9
20210926003109 68 45 1.0 1.0 0.00 0.00 0.00 52 1013.9
20210926003009 68 90 2.0 1.0 0.00 0.00 0.00 52 1013.9
20210926002909 68 45 2.0 2.0 0.00 0.00 0.00 52 1013.9
20210926002809 68 315 2.0 2.0 0.00 0.00 0.00 52 1013.9
20210926002709 68 315 2.0 2.0 0.00 0.00 0.00 52 1013.9
20210926002509 69 68 3.0 3.0 0.00 0.00 0.00 52 1013.9
20210926002409 69 90 3.0 2.0 0.00 0.00 0.00 52 1013.9
20210926002309 69 90 1.0 3.0 0.00 0.00 0.00 52 1013.9
20210926002209 69 90 1.0 1.0 0.00 0.00 0.00 52 1013.9
20210926002109 69 0 3.0 3.0 0.00 0.00 0.00 52 1013.9
20210926002009 69 45 3.0 2.0 0.00 0.00 0.00 52 1013.9
20210926001709 69 45 2.0 2.0 0.00 0.00 0.00 52 1013.9
20210926001509 69 135 4.0 4.0 0.00 0.00 0.00 52 1013.9
20210926001311 69 135 4.0 3.0 0.00 0.00 0.00 52 1013.9
20210926001211 69 135 2.0 3.0 0.00 0.00 0.00 52 1013.9
20210926001111 69 90 3.0 3.0 0.00 0.00 0.00 52 1013.9
20210926001009 69 45 3.0 2.0 0.00 0.00 0.00 52 1013.9
20210926000909 69 90 3.0 3.0 0.00 0.00 0.00 52 1013.9
20210926000809 69 90 3.0 4.0 0.00 0.00 0.00 53 1013.9
20210926000609 69 68 1.0 1.0 0.00 0.00 0.00 53 1013.9
20210926000509 69 45 1.0 2.0 0.00 0.00 0.00 52 1013.9
20210926000409 69 158 2.0 1.0 0.00 0.00 0.00 52 1013.9
20210926000309 69 45 2.0 2.0 0.00 0.00 0.00 52 1013.9
20210926000110 69 45 3.0 3.0 0.00 0.00 0.00 52 1013.9
20210926000009 69 45 4.0 2.0 0.00 0.00 0.00 52 1013.9
20210925235809 69 90 2.0 6.0 0.00 0.00 0.00 52 1013.9
20210925235709 69 45 4.0 4.0 0.00 0.00 0.00 52 1013.9
20210925235609 69 45 4.0 3.0 0.00 0.00 0.00 52 1013.9
20210925235509 69 45 5.0 4.0 0.00 0.00 0.00 52 1013.9
20210925235409 69 45 4.0 6.0 0.00 0.00 0.00 52 1013.9
20210925235309 69 45 3.0 3.0 0.00 0.00 0.00 52 1013.9
20210925235209 69 135 3.0 2.0 0.00 0.00 0.00 52 1013.9
20210925235109 69 68 4.0 4.0 0.00 0.00 0.00 52 1013.9
20210925235009 69 45 2.0 3.0 0.00 0.00 0.00 52 1013.9
20210925234909 69 135 2.0 3.0 0.00 0.00 0.00 52 1013.9
20210925234809 69 45 2.0 3.0 0.00 0.00 0.00 52 1013.9
20210925234709 69 45 3.0 3.0 0.00 0.00 0.00 52 1013.9
20210925234609 69 45 3.0 3.0 0.00 0.00 0.00 52 1013.9
20210925234509 69 45 3.0 2.0 0.00 0.00 0.00 52 1013.9
20210925234309 69 45 3.0 3.0 0.00 0.00 0.00 52 1013.9
20210925234209 69 45 3.0 3.0 0.00 0.00 0.00 52 1013.9
20210925234109 69 90 3.0 4.0 0.00 0.00 0.00 52 1013.9
20210925234009 69 90 3.0 3.0 0.00 0.00 0.00 52 1013.9
20210925233509 69 45 3.0 4.0 0.00 0.00 0.00 52 1013.9
20210925233309 69 90 3.0 4.0 0.00 0.00 0.00 52 1013.9
20210925233209 69 0 2.0 3.0 0.00 0.00 0.00 51 1013.9
20210925233009 69 0 4.0 4.0 0.00 0.00 0.00 51 1013.9
20210925232909 69 0 3.0 4.0 0.00 0.00 0.00 51 1013.9
20210925232809 69 22 3.0 3.0 0.00 0.00 0.00 51 1013.9
20210925232709 69 0 3.0 5.0 0.00 0.00 0.00 51 1013.9
20210925232609 69 90 3.0 4.0 0.00 0.00 0.00 51 1013.9
20210925232509 69 90 2.0 3.0 0.00 0.00 0.00 51 1013.9
20210925232409 69 0 2.0 2.0 0.00 0.00 0.00 51 1013.9
20210925232309 69 315 4.0 4.0 0.00 0.00 0.00 51 1013.9
20210925232210 69 270 2.0 2.0 0.00 0.00 0.00 51 1013.9
20210925232109 69 68 3.0 3.0 0.00 0.00 0.00 51 1013.9
20210925232009 69 68 4.0 4.0 0.00 0.00 0.00 51 1013.9
20210925231909 69 68 3.0 6.0 0.00 0.00 0.00 51 1013.9
20210925231809 69 315 3.0 5.0 0.00 0.00 0.00 51 1013.9
20210925231709 69 22 2.0 2.0 0.00 0.00 0.00 51 1013.9
20210925231609 69 90 4.0 3.0 0.00 0.00 0.00 51 1013.9
20210925231509 69 0 4.0 4.0 0.00 0.00 0.00 51 1013.9
20210925231309 69 0 3.0 2.0 0.00 0.00 0.00 51 1013.9
20210925231209 69 315 3.0 3.0 0.00 0.00 0.00 51 1013.9
20210925231109 69 45 2.0 2.0 0.00 0.00 0.00 51 1013.9
20210925231009 69 45 5.0 5.0 0.00 0.00 0.00 51 1013.9
20210925230909 69 90 3.0 2.0 0.00 0.00 0.00 51 1013.9
20210925230809 69 45 3.0 3.0 0.00 0.00 0.00 51 1013.9
20210925230709 69 135 3.0 2.0 0.00 0.00 0.00 51 1013.9
20210925230609 69 45 3.0 4.0 0.00 0.00 0.00 51 1013.9
20210925230509 69 68 4.0 3.0 0.00 0.00 0.00 51 1013.9
20210925230409 69 90 4.0 5.0 0.00 0.00 0.00 51 1013.9
20210925230309 69 90 3.0 3.0 0.00 0.00 0.00 50 1013.9
20210925230209 69 0 6.0 6.0 0.00 0.00 0.00 50 1013.9
20210925230109 69 45 4.0 7.0 0.00 0.00 0.00 50 1013.9
20210925230009 69 90 4.0 4.0 0.00 0.00 0.00 50 1013.9
20210925225909 69 45 4.0 5.0 0.00 0.00 0.00 50 1013.9
20210925225809 69 112 4.0 7.0 0.00 0.00 0.00 50 1013.9
20210925225709 70 90 3.0 4.0 0.00 0.00 0.00 50 1013.9
20210925225409 70 45 4.0 4.0 0.00 0.00 0.00 50 1013.9
20210925225209 70 90 4.0 6.0 0.00 0.00 0.00 50 1013.9
20210925225109 70 68 4.0 3.0 0.00 0.00 0.00 50 1013.9
20210925225009 70 315 6.0 3.0 0.00 0.00 0.00 50 1013.9
20210925224909 70 45 3.0 4.0 0.00 0.00 0.00 50 1013.9
20210925224609 70 90 5.0 6.0 0.00 0.00 0.00 50 1013.9
20210925224509 70 90 4.0 2.0 0.00 0.00 0.00 50 1013.9
20210925224409 70 90 4.0 3.0 0.00 0.00 0.00 50 1013.9
20210925224309 70 45 5.0 5.0 0.00 0.00 0.00 50 1013.9
20210925224209 70 90 5.0 5.0 0.00 0.00 0.00 50 1013.9
20210925224109 70 68 4.0 6.0 0.00 0.00 0.00 50 1013.9
20210925224009 70 68 4.0 5.0 0.00 0.00 0.00 50 1013.9
20210925223909 70 45 4.0 5.0 0.00 0.00 0.00 50 1013.9
20210925223809 70 338 2.0 3.0 0.00 0.00 0.00 50 1013.9
20210925223709 70 315 6.0 3.0 0.00 0.00 0.00 50 1013.9
20210925223609 70 315 3.0 4.0 0.00 0.00 0.00 50 1013.9
20210925223509 70 315 5.0 3.0 0.00 0.00 0.00 50 1013.9
20210925223409 70 315 6.0 5.0 0.00 0.00 0.00 50 1013.9
20210925223309 70 315 3.0 6.0 0.00 0.00 0.00 50 1013.9
20210925223209 70 315 3.0 5.0 0.00 0.00 0.00 50 1013.9
20210925223109 70 292 2.0 3.0 0.00 0.00 0.00 50 1013.9
20210925223009 70 0 2.0 2.0 0.00 0.00 0.00 50 1013.9
20210925222909 70 22 3.0 3.0 0.00 0.00 0.00 50 1013.9
20210925222809 70 68 4.0 6.0 0.00 0.00 0.00 50 1013.9
20210925222709 70 45 5.0 5.0 0.00 0.00 0.00 50 1013.9
20210925222609 70 135 2.0 3.0 0.00 0.00 0.00 50 1013.9
20210925222509 70 90 2.0 2.0 0.00 0.00 0.00 50 1013.9
20210925222409 70 90 4.0 5.0 0.00 0.00 0.00 50 1013.9
20210925222309 70 0 4.0 3.0 0.00 0.00 0.00 50 1013.9
20210925222209 70 0 4.0 6.0 0.00 0.00 0.00 50 1013.9
20210925222109 70 315 3.0 4.0 0.00 0.00 0.00 50 1013.9
20210925221909 70 180 5.0 3.0 0.00 0.00 0.00 49 1013.9
20210925221809 70 315 5.0 5.0 0.00 0.00 0.00 49 1013.9
20210925221709 70 315 4.0 4.0 0.00 0.00 0.00 49 1013.9
20210925221609 71 315 4.0 5.0 0.00 0.00 0.00 49 1013.9
20210925221509 71 0 6.0 4.0 0.00 0.00 0.00 49 1013.9
20210925221409 71 338 4.0 4.0 0.00 0.00 0.00 49 1013.9
20210925221309 71 315 4.0 4.0 0.00 0.00 0.00 49 1013.9
20210925221209 71 315 4.0 5.0 0.00 0.00 0.00 49 1013.9
20210925221109 71 45 4.0 3.0 0.00 0.00 0.00 49 1013.9
20210925220909 71 90 4.0 3.0 0.00 0.00 0.00 49 1013.9
20210925220809 71 315 6.0 4.0 0.00 0.00 0.00 49 1013.9
20210925220709 71 315 6.0 6.0 0.00 0.00 0.00 49 1013.9
20210925220609 71 315 3.0 6.0 0.00 0.00 0.00 49 1013.9
20210925220409 71 315 4.0 5.0 0.00 0.00 0.00 49 1013.9
20210925220309 71 315 2.0 4.0 0.00 0.00 0.00 49 1013.9
20210925220209 71 45 4.0 3.0 0.00 0.00 0.00 49 1013.9
20210925220109 71 338 4.0 4.0 0.00 0.00 0.00 49 1013.9
20210925220009 71 315 3.0 4.0 0.00 0.00 0.00 49 1013.9
20210925215909 71 45 4.0 4.0 0.00 0.00 0.00 49 1013.9
20210925215809 71 45 3.0 4.0 0.00 0.00 0.00 49 1013.9
20210925215709 71 315 3.0 4.0 0.00 0.00 0.00 49 1013.9
20210925215609 71 315 4.0 3.0 0.00 0.00 0.00 49 1013.9
20210925215509 71 315 4.0 5.0 0.00 0.00 0.00 49 1013.9
20210925215209 71 45 5.0 9.0 0.00 0.00 0.00 49 1014.9
20210925214909 71 68 4.0 4.0 0.00 0.00 0.00 49 1014.9
20210925214809 71 68 5.0 5.0 0.00 0.00 0.00 49 1014.9
20210925214709 71 135 3.0 3.0 0.00 0.00 0.00 49 1014.9
20210925214509 71 45 4.0 3.0 0.00 0.00 0.00 49 1014.9
20210925214409 71 45 3.0 3.0 0.00 0.00 0.00 49 1014.9
20210925214309 71 90 5.0 6.0 0.00 0.00 0.00 49 1014.9
20210925214209 71 68 4.0 4.0 0.00 0.00 0.00 49 1014.9
20210925214109 71 90 3.0 6.0 0.00 0.00 0.00 49 1014.9
20210925214009 71 0 4.0 2.0 0.00 0.00 0.00 49 1014.9
20210925213909 71 90 4.0 5.0 0.00 0.00 0.00 49 1014.9
20210925213809 71 90 4.0 5.0 0.00 0.00 0.00 49 1014.9
20210925213609 71 270 4.0 5.0 0.00 0.00 0.00 49 1014.9
20210925213509 71 45 3.0 2.0 0.00 0.00 0.00 49 1014.9
20210925213409 71 0 3.0 5.0 0.00 0.00 0.00 49 1014.9
20210925213309 71 315 2.0 3.0 0.00 0.00 0.00 49 1014.9
20210925213209 71 0 3.0 4.0 0.00 0.00 0.00 50 1014.9
20210925213109 71 270 4.0 4.0 0.00 0.00 0.00 50 1014.9
20210925213009 71 45 2.0 3.0 0.00 0.00 0.00 50 1014.9
20210925212911 71 135 2.0 2.0 0.00 0.00 0.00 50 1014.9
20210925212809 71 0 3.0 3.0 0.00 0.00 0.00 50 1014.9
20210925212709 71 0 4.0 4.0 0.00 0.00 0.00 50 1014.9
20210925212609 71 315 5.0 5.0 0.00 0.00 0.00 50 1014.9
20210925212509 71 315 7.0 5.0 0.00 0.00 0.00 50 1014.9
20210925212409 71 315 6.0 7.0 0.00 0.00 0.00 50 1014.9
20210925212309 71 315 4.0 6.0 0.00 0.00 0.00 50 1014.9
20210925212209 71 292 4.0 6.0 0.00 0.00 0.00 50 1014.9
20210925212109 71 315 4.0 4.0 0.00 0.00 0.00 50 1014.9
20210925212009 71 90 4.0 3.0 0.00 0.00 0.00 50 1014.9
20210925211909 71 45 4.0 3.0 0.00 0.00 0.00 49 1014.9
20210925211709 71 292 4.0 5.0 0.00 0.00 0.00 50 1014.9
20210925211609 71 315 3.0 3.0 0.00 0.00 0.00 50 1014.9
20210925211509 71 0 2.0 2.0 0.00 0.00 0.00 50 1014.9
20210925211409 71 315 3.0 3.0 0.00 0.00 0.00 50 1014.9
20210925211209 71 315 6.0 6.0 0.00 0.00 0.00 50 1014.9
20210925211109 71 338 4.0 6.0 0.00 0.00 0.00 50 1014.9
20210925211009 71 315 3.0 5.0 0.00 0.00 0.00 50 1014.9
20210925210909 71 315 4.0 4.0 0.00 0.00 0.00 50 1014.9
20210925210809 71 270 4.0 5.0 0.00 0.00 0.00 50 1014.9
20210925210709 71 270 4.0 4.0 0.00 0.00 0.00 50 1014.9
20210925210509 71 0 6.0 4.0 0.00 0.00 0.00 50 1014.9
20210925210409 71 45 6.0 5.0 0.00 0.00 0.00 50 1014.9
20210925210309 71 90 3.0 7.0 0.00 0.00 0.00 50 1014.9
20210925210209 71 0 2.0 3.0 0.00 0.00 0.00 50 1014.9
20210925210109 71 45 3.0 4.0 0.00 0.00 0.00 50 1014.9
20210925210009 71 338 3.0 3.0 0.00 0.00 0.00 50 1014.9
20210925205909 71 0 4.0 4.0 0.00 0.00 0.00 50 1014.9
20210925205809 71 338 2.0 5.0 0.00 0.00 0.00 50 1014.9
20210925205609 71 22 5.0 3.0 0.00 0.00 0.00 50 1014.9
20210925205509 71 315 5.0 4.0 0.00 0.00 0.00 50 1014.9
20210925205409 71 315 5.0 6.0 0.00 0.00 0.00 50 1014.9
20210925205309 71 45 5.0 4.0 0.00 0.00 0.00 50 1014.9
20210925205109 71 315 5.0 4.0 0.00 0.00 0.00 50 1014.9
20210925205009 71 315 3.0 5.0 0.00 0.00 0.00 50 1014.9
20210925204909 71 0 2.0 2.0 0.00 0.00 0.00 50 1014.9
20210925204709 71 315 6.0 6.0 0.00 0.00 0.00 50 1014.9
20210925204609 71 315 3.0 3.0 0.00 0.00 0.00 51 1014.9
20210925204409 71 315 4.0 2.0 0.00 0.00 0.00 51 1014.9
20210925204209 71 338 3.0 6.0 0.00 0.00 0.00 51 1014.9
20210925204109 71 0 4.0 3.0 0.00 0.00 0.00 51 1014.9
20210925204009 71 22 4.0 5.0 0.00 0.00 0.00 51 1014.9
20210925203909 71 90 2.0 3.0 0.00 0.00 0.00 52 1014.9
20210925203809 71 0 3.0 5.0 0.00 0.00 0.00 52 1014.9
20210925203709 71 45 3.0 3.0 0.00 0.00 0.00 51 1014.9
20210925203609 71 0 6.0 4.0 0.00 0.00 0.00 51 1014.9
20210925203509 71 315 4.0 6.0 0.00 0.00 0.00 51 1014.9
20210925203409 71 315 4.0 2.0 0.00 0.00 0.00 52 1014.9
20210925203309 71 292 4.0 4.0 0.00 0.00 0.00 52 1014.9
20210925203209 71 0 5.0 4.0 0.00 0.00 0.00 52 1014.9
20210925203009 71 315 2.0 4.0 0.00 0.00 0.00 52 1014.9
20210925202909 71 45 2.0 2.0 0.00 0.00 0.00 52 1014.9
20210925202809 71 0 4.0 2.0 0.00 0.00 0.00 52 1014.9
20210925202609 71 0 4.0 5.0 0.00 0.00 0.00 52 1014.9
20210925202509 71 45 3.0 2.0 0.00 0.00 0.00 52 1014.9
20210925202309 71 0 5.0 6.0 0.00 0.00 0.00 52 1014.9
20210925202209 71 292 5.0 3.0 0.00 0.00 0.00 53 1014.9
20210925202011 71 315 4.0 6.0 0.00 0.00 0.00 54 1014.9
20210925201909 71 45 3.0 3.0 0.00 0.00 0.00 54 1014.9
20210925201809 71 315 4.0 3.0 0.00 0.00 0.00 54 1014.9
20210925201609 71 0 2.0 6.0 0.00 0.00 0.00 54 1014.9
20210925201510 71 0 2.0 2.0 0.00 0.00 0.00 54 1014.9
20210925201410 71 315 1.0 4.0 0.00 0.00 0.00 53 1014.9
20210925201209 71 22 5.0 5.0 0.00 0.00 0.00 53 1014.9
20210925201109 70 315 3.0 3.0 0.00 0.00 0.00 53 1014.9
20210925201009 70 45 4.0 4.0 0.00 0.00 0.00 53 1014.9
20210925200909 71 270 4.0 2.0 0.00 0.00 0.00 53 1015.9
20210925200809 70 270 4.0 5.0 0.00 0.00 0.00 53 1015.9
20210925200709 70 315 5.0 5.0 0.00 0.00 0.00 53 1015.9
20210925200609 70 0 3.0 5.0 0.00 0.00 0.00 54 1015.9
20210925200509 70 22 2.0 2.0 0.00 0.00 0.00 54 1015.9
20210925200309 70 315 5.0 4.0 0.00 0.00 0.00 54 1015.9
20210925200209 70 315 3.0 7.0 0.00 0.00 0.00 53 1015.9
20210925200109 70 292 5.0 2.0 0.00 0.00 0.00 53 1015.9
20210925200009 70 0 6.0 6.0 0.00 0.00 0.00 53 1015.9
20210925195909 70 315 4.0 5.0 0.00 0.00 0.00 54 1015.9
20210925195709 70 45 3.0 3.0 0.00 0.00 0.00 54 1015.9
20210925195609 70 315 4.0 2.0 0.00 0.00 0.00 54 1015.9
20210925195509 70 0 4.0 3.0 0.00 0.00 0.00 54 1015.9
20210925195409 70 0 4.0 4.0 0.00 0.00 0.00 54 1015.9
20210925195309 70 315 4.0 3.0 0.00 0.00 0.00 54 1015.9
20210925195209 70 315 3.0 5.0 0.00 0.00 0.00 54 1015.9
20210925195109 70 315 3.0 3.0 0.00 0.00 0.00 54 1015.9
20210925195009 70 45 6.0 3.0 0.00 0.00 0.00 54 1015.9
20210925194809 70 315 3.0 3.0 0.00 0.00 0.00 54 1015.9
20210925194709 70 0 4.0 3.0 0.00 0.00 0.00 54 1015.9
20210925194609 70 315 5.0 4.0 0.00 0.00 0.00 54 1015.9
20210925194509 70 315 3.0 5.0 0.00 0.00 0.00 54 1015.9
20210925194409 70 315 3.0 3.0 0.00 0.00 0.00 54 1015.9
20210925194309 70 45 4.0 3.0 0.00 0.00 0.00 54 1015.9
20210925194209 70 0 3.0 5.0 0.00 0.00 0.00 54 1015.9
20210925194109 70 0 3.0 3.0 0.00 0.00 0.00 54 1015.9
20210925193909 70 315 4.0 4.0 0.00 0.00 0.00 55 1015.9
20210925193809 70 338 5.0 6.0 0.00 0.00 0.00 55 1015.9
20210925193709 70 45 3.0 3.0 0.00 0.00 0.00 54 1015.9
20210925193609 70 90 5.0 4.0 0.00 0.00 0.00 54 1015.9
20210925193509 70 45 2.0 2.0 0.00 0.00 0.00 54 1015.9
20210925193209 70 45 5.0 3.0 0.00 0.00 0.00 54 1015.9
20210925193109 70 68 4.0 4.0 0.00 0.00 0.00 54 1015.9
20210925193009 70 68 4.0 8.0 0.00 0.00 0.00 55 1015.9
20210925192909 70 0 2.0 3.0 0.00 0.00 0.00 55 1015.9
20210925192509 70 0 4.0 6.0 0.00 0.00 0.00 55 1015.9
20210925192409 70 0 4.0 3.0 0.00 0.00 0.00 56 1015.9
20210925192309 70 0 5.0 4.0 0.00 0.00 0.00 56 1015.9
20210925192209 69 315 5.0 4.0 0.00 0.00 0.00 56 1015.9
20210925192109 69 315 5.0 7.0 0.00 0.00 0.00 56 1015.9
20210925191909 69 315 4.0 4.0 0.00 0.00 0.00 56 1015.9
20210925191809 69 315 5.0 5.0 0.00 0.00 0.00 57 1015.9
20210925191709 69 315 3.0 6.0 0.00 0.00 0.00 57 1015.9
20210925191609 69 270 3.0 4.0 0.00 0.00 0.00 57 1015.9
20210925191509 69 0 3.0 3.0 0.00 0.00 0.00 57 1015.9
20210925191409 69 315 3.0 4.0 0.00 0.00 0.00 57 1015.9
20210925191309 69 90 3.0 3.0 0.00 0.00 0.00 58 1015.9
20210925191209 69 315 2.0 3.0 0.00 0.00 0.00 58 1015.9
20210925191009 69 90 3.0 3.0 0.00 0.00 0.00 58 1015.9
20210925190910 69 270 3.0 4.0 0.00 0.00 0.00 58 1015.9
20210925190809 69 338 2.0 4.0 0.00 0.00 0.00 58 1015.9
20210925190709 69 225 2.0 1.0 0.00 0.00 0.00 58 1015.9
20210925190509 69 315 4.0 1.0 0.00 0.00 0.00 59 1015.9
20210925190409 69 315 5.0 5.0 0.00 0.00 0.00 59 1015.9
20210925190309 69 0 4.0 4.0 0.00 0.00 0.00 59 1015.9
20210925190209 69 338 4.0 4.0 0.00 0.00 0.00 59 1015.9
20210925190109 69 22 4.0 3.0 0.00 0.00 0.00 59 1015.9
20210925190009 69 315 2.0 2.0 0.00 0.00 0.00 59 1015.9
20210925185909 69 0 2.0 3.0 0.00 0.00 0.00 59 1015.9
20210925185809 69 292 1.0 2.0 0.00 0.00 0.00 59 1015.9
20210925185609 69 270 4.0 3.0 0.00 0.00 0.00 59 1015.9
20210925185509 69 270 4.0 6.0 0.00 0.00 0.00 59 1015.9
20210925185409 68 315 3.0 3.0 0.00 0.00 0.00 60 1015.9
20210925185309 68 0 4.0 4.0 0.00 0.00 0.00 61 1015.9
20210925185209 68 112 4.0 1.0 0.00 0.00 0.00 61 1015.9
20210925185109 68 45 3.0 4.0 0.00 0.00 0.00 61 1015.9
20210925185009 68 90 1.0 4.0 0.00 0.00 0.00 61 1015.9
20210925184909 68 315 1.0 1.0 0.00 0.00 0.00 61 1015.9
20210925184809 68 45 2.0 1.0 0.00 0.00 0.00 61 1015.9
20210925184709 68 90 2.0 2.0 0.00 0.00 0.00 61 1015.9
20210925184609 68 68 2.0 3.0 0.00 0.00 0.00 61 1015.9
20210925184509 68 135 1.0 1.0 0.00 0.00 0.00 61 1015.9
20210925184409 68 158 1.0 1.0 0.00 0.00 0.00 61 1015.9
20210925184309 68 0 3.0 3.0 0.00 0.00 0.00 61 1015.9
20210925184209 68 45 3.0 3.0 0.00 0.00 0.00 61 1015.9
20210925184109 68 315 3.0 2.0 0.00 0.00 0.00 61 1015.9
20210925184009 68 315 2.0 2.0 0.00 0.00 0.00 61 1015.9
20210925183909 68 90 3.0 2.0 0.00 0.00 0.00 61 1015.9
20210925183809 68 0 3.0 2.0 0.00 0.00 0.00 62 1015.9
20210925183709 68 0 2.0 4.0 0.00 0.00 0.00 62 1015.9
20210925183609 68 315 2.0 3.0 0.00 0.00 0.00 62 1015.9
20210925183509 67 180 1.0 2.0 0.00 0.00 0.00 62 1015.9
20210925183409 67 270 1.0 0.0 0.00 0.00 0.00 62 1015.9
20210925183309 67 292 2.0 1.0 0.00 0.00 0.00 62 1015.9
20210925183209 67 0 3.0 3.0 0.00 0.00 0.00 62 1015.9
20210925183109 67 338 2.0 3.0 0.00 0.00 0.00 62 1015.9
20210925183009 67 315 2.0 3.0 0.00 0.00 0.00 62 1015.9
20210925182909 67 338 2.0 2.0 0.00 0.00 0.00 63 1015.9
20210925182709 67 0 2.0 2.0 0.00 0.00 0.00 63 1015.9
20210925182609 67 315 3.0 3.0 0.00 0.00 0.00 63 1015.9
20210925182409 67 270 4.0 3.0 0.00 0.00 0.00 63 1015.9
20210925182309 67 315 2.0 3.0 0.00 0.00 0.00 64 1015.9
20210925182209 67 315 4.0 4.0 0.00 0.00 0.00 64 1015.9
20210925182109 67 90 3.0 4.0 0.00 0.00 0.00 64 1015.9
20210925181809 67 45 1.0 3.0 0.00 0.00 0.00 65 1015.9
20210925181709 67 0 3.0 3.0 0.00 0.00 0.00 64 1015.9
20210925181609 67 0 2.0 2.0 0.00 0.00 0.00 64 1015.9
20210925181509 67 315 2.0 2.0 0.00 0.00 0.00 64 1015.9
20210925181209 67 0 3.0 3.0 0.00 0.00 0.00 64 1015.9
20210925181109 67 22 3.0 3.0 0.00 0.00 0.00 64 1015.9
20210925181009 67 292 2.0 2.0 0.00 0.00 0.00 65 1015.9
20210925180909 67 270 2.0 2.0 0.00 0.00 0.00 65 1015.9
20210925180809 67 338 2.0 2.0 0.00 0.00 0.00 65 1015.9
20210925180709 66 0 3.0 3.0 0.00 0.00 0.00 65 1015.9
20210925180609 66 270 3.0 4.0 0.00 0.00 0.00 65 1015.9
20210925180509 66 0 3.0 2.0 0.00 0.00 0.00 65 1015.9
20210925180409 66 270 3.0 3.0 0.00 0.00 0.00 65 1015.9
20210925180309 66 315 3.0 4.0 0.00 0.00 0.00 65 1015.9
20210925180209 66 315 3.0 5.0 0.00 0.00 0.00 65 1015.9
20210925180109 66 270 3.0 2.0 0.00 0.00 0.00 66 1015.9
20210925180009 66 0 3.0 4.0 0.00 0.00 0.00 66 1015.9
20210925175909 66 315 3.0 2.0 0.00 0.00 0.00 67 1015.9
20210925175809 66 315 2.0 2.0 0.00 0.00 0.00 67 1015.9
20210925175709 66 270 2.0 3.0 0.00 0.00 0.00 67 1015.9
20210925175609 66 270 1.0 2.0 0.00 0.00 0.00 67 1015.9
20210925175509 66 225 2.0 1.0 0.00 0.00 0.00 67 1015.9
20210925175409 66 180 3.0 3.0 0.00 0.00 0.00 67 1015.9
20210925175310 66 225 2.0 2.0 0.00 0.00 0.00 67 1015.9
20210925175209 66 225 2.0 2.0 0.00 0.00 0.00 67 1015.9
20210925175111 66 248 2.0 2.0 0.00 0.00 0.00 67 1015.9
20210925174909 65 315 1.0 1.0 0.00 0.00 0.00 67 1015.9
20210925174809 65 202 3.0 2.0 0.00 0.00 0.00 67 1015.9
20210925174709 65 270 2.0 2.0 0.00 0.00 0.00 67 1015.9
20210925174609 65 270 4.0 4.0 0.00 0.00 0.00 67 1015.9
20210925174409 65 270 3.0 5.0 0.00 0.00 0.00 68 1015.9
20210925174309 65 315 1.0 1.0 0.00 0.00 0.00 68 1015.9
20210925174209 65 202 1.0 1.0 0.00 0.00 0.00 68 1015.9
20210925174009 65 225 2.0 2.0 0.00 0.00 0.00 68 1015.9
20210925173909 65 135 2.0 1.0 0.00 0.00 0.00 68 1015.9
20210925173810 65 90 2.0 3.0 0.00 0.00 0.00 68 1015.9
20210925173710 65 135 2.0 2.0 0.00 0.00 0.00 68 1015.9
20210925173609 65 180 0.0 2.0 0.00 0.00 0.00 68 1015.9
20210925173509 65 180 1.0 1.0 0.00 0.00 0.00 68 1015.9
20210925173409 65 270 0.0 2.0 0.00 0.00 0.00 68 1015.9
20210925173309 65 315 1.0 0.0 0.00 0.00 0.00 68 1015.9
20210925173209 65 0 0.0 1.0 0.00 0.00 0.00 69 1015.9
20210925173109 65 0 0.0 0.0 0.00 0.00 0.00 69 1015.9
20210925172809 65 338 3.0 3.0 0.00 0.00 0.00 69 1015.9
20210925172709 65 315 2.0 4.0 0.00 0.00 0.00 69 1015.9
20210925172609 65 315 1.0 2.0 0.00 0.00 0.00 69 1015.9
20210925172409 64 45 3.0 3.0 0.00 0.00 0.00 69 1015.9
20210925172309 64 0 2.0 2.0 0.00 0.00 0.00 69 1015.9
20210925172009 64 0 3.0 4.0 0.00 0.00 0.00 69 1015.9
20210925171909 64 315 3.0 2.0 0.00 0.00 0.00 70 1015.9
20210925171809 64 0 3.0 4.0 0.00 0.00 0.00 70 1015.9
20210925171710 64 270 2.0 2.0 0.00 0.00 0.00 70 1015.9
20210925171609 64 45 2.0 1.0 0.00 0.00 0.00 70 1015.9
20210925171509 64 90 3.0 3.0 0.00 0.00 0.00 70 1015.9
20210925171411 64 0 3.0 4.0 0.00 0.00 0.00 70 1015.9
20210925171309 64 315 2.0 3.0 0.00 0.00 0.00 70 1015.9
20210925171210 64 315 2.0 3.0 0.00 0.00 0.00 70 1015.9
20210925171109 64 0 2.0 2.0 0.00 0.00 0.00 70 1015.9
20210925171009 64 90 2.0 2.0 0.00 0.00 0.00 70 1015.9
20210925170909 64 90 2.0 3.0 0.00 0.00 0.00 70 1015.9
20210925170809 64 45 2.0 2.0 0.00 0.00 0.00 70 1015.9
20210925170709 64 45 2.0 1.0 0.00 0.00 0.00 70 1015.9
20210925170509 64 45 2.0 2.0 0.00 0.00 0.00 70 1015.9
20210925170409 64 315 1.0 2.0 0.00 0.00 0.00 70 1015.9
20210925170309 64 0 1.0 1.0 0.00 0.00 0.00 70 1015.9
20210925170209 64 0 2.0 3.0 0.00 0.00 0.00 70 1015.9
20210925170009 64 270 1.0 0.0 0.00 0.00 0.00 70 1015.9
20210925165909 64 292 2.0 1.0 0.00 0.00 0.00 70 1015.9
20210925165809 64 270 2.0 2.0 0.00 0.00 0.00 70 1015.9
20210925165709 64 270 1.0 3.0 0.00 0.00 0.00 70 1015.9
20210925165409 64 45 0.0 0.0 0.00 0.00 0.00 70 1015.9
20210925165309 64 45 1.0 0.0 0.00 0.00 0.00 70 1015.9
20210925165210 64 45 1.0 2.0 0.00 0.00 0.00 70 1015.9
20210925165109 64 45 1.0 1.0 0.00 0.00 0.00 70 1015.9
20210925164909 64 315 2.0 2.0 0.00 0.00 0.00 71 1015.9
20210925164809 64 270 3.0 2.0 0.00 0.00 0.00 71 1015.9
20210925164709 63 270 2.0 3.0 0.00 0.00 0.00 71 1015.9
20210925164609 63 338 2.0 3.0 0.00 0.00 0.00 71 1015.9
20210925164509 63 270 2.0 2.0 0.00 0.00 0.00 71 1015.9
20210925164409 63 315 2.0 1.0 0.00 0.00 0.00 71 1015.9
20210925164309 63 180 1.0 2.0 0.00 0.00 0.00 71 1015.9
20210925164209 63 180 1.0 1.0 0.00 0.00 0.00 71 1015.9
20210925164109 63 225 2.0 2.0 0.00 0.00 0.00 71 1015.9
20210925164009 63 225 1.0 1.0 0.00 0.00 0.00 71 1015.9
20210925163909 63 225 2.0 1.0 0.00 0.00 0.00 71 1015.9
20210925163809 63 270 2.0 3.0 0.00 0.00 0.00 71 1015.9
20210925163709 63 225 1.0 2.0 0.00 0.00 0.00 71 1015.9
20210925163610 63 180 1.0 0.0 0.00 0.00 0.00 71 1015.9
20210925163510 63 0 1.0 0.0 0.00 0.00 0.00 71 1015.9
20210925163309 63 0 2.0 1.0 0.00 0.00 0.00 71 1015.9
20210925163209 63 0 2.0 2.0 0.00 0.00 0.00 71 1015.9
20210925163110 63 22 3.0 3.0 0.00 0.00 0.00 71 1015.9
20210925163009 63 45 3.0 3.0 0.00 0.00 0.00 72 1015.9
20210925162909 63 45 3.0 3.0 0.00 0.00 0.00 72 1015.9
20210925162809 63 45 3.0 3.0 0.00 0.00 0.00 72 1015.9
20210925162709 63 90 3.0 3.0 0.00 0.00 0.00 72 1015.9
20210925162609 63 90 2.0 2.0 0.00 0.00 0.00 72 1015.9
20210925162510 63 135 1.0 1.0 0.00 0.00 0.00 72 1015.9
20210925162309 63 135 2.0 1.0 0.00 0.00 0.00 72 1015.9
20210925162109 63 180 1.0 1.0 0.00 0.00 0.00 72 1015.9
20210925162009 63 90 2.0 2.0 0.00 0.00 0.00 72 1015.9
20210925161909 63 135 1.0 3.0 0.00 0.00 0.00 72 1015.9
20210925161809 63 135 1.0 1.0 0.00 0.00 0.00 72 1015.9
20210925161709 63 135 1.0 1.0 0.00 0.00 0.00 72 1015.9
20210925161609 63 45 2.0 1.0 0.00 0.00 0.00 72 1015.9
20210925161509 63 90 1.0 2.0 0.00 0.00 0.00 72 1015.9
20210925161409 63 45 1.0 1.0 0.00 0.00 0.00 72 1015.9
20210925161309 63 45 0.0 1.0 0.00 0.00 0.00 72 1015.9
20210925161209 63 0 0.0 0.0 0.00 0.00 0.00 72 1015.9
20210925161109 63 0 0.0 0.0 0.00 0.00 0.00 72 1015.9
20210925161009 63 0 0.0 0.0 0.00 0.00 0.00 72 1015.9
20210925160809 63 0 0.0 0.0 0.00 0.00 0.00 72 1015.9
20210925160709 63 0 0.0 0.0 0.00 0.00 0.00 72 1015.9
20210925160609 63 0 0.0 0.0 0.00 0.00 0.00 72 1015.9
20210925160509 63 0 0.0 0.0 0.00 0.00 0.00 72 1015.9
20210925160309 63 45 2.0 1.0 0.00 0.00 0.00 72 1015.9
20210925160209 63 90 1.0 2.0 0.00 0.00 0.00 72 1015.9
20210925160009 63 45 2.0 2.0 0.00 0.00 0.00 72 1015.9
20210925155709 63 135 1.0 2.0 0.00 0.00 0.00 72 1015.9
20210925155609 63 90 0.0 0.0 0.00 0.00 0.00 72 1015.9
20210925155509 63 315 0.0 0.0 0.00 0.00 0.00 72 1015.9
20210925155409 63 90 0.0 0.0 0.00 0.00 0.00 72 1015.9
20210925155309 63 90 0.0 0.0 0.00 0.00 0.00 72 1015.9
20210925155209 63 90 1.0 0.0 0.00 0.00 0.00 72 1015.9
20210925155109 63 90 1.0 1.0 0.00 0.00 0.00 72 1015.9
20210925155009 63 90 1.0 2.0 0.00 0.00 0.00 72 1015.9
20210925154909 63 45 1.0 1.0 0.00 0.00 0.00 72 1015.9
20210925154709 63 90 1.0 1.0 0.00 0.00 0.00 72 1015.9
20210925154609 63 90 1.0 2.0 0.00 0.00 0.00 72 1015.9
20210925154409 63 90 0.0 0.0 0.00 0.00 0.00 72 1015.9
20210925154309 63 45 0.0 0.0 0.00 0.00 0.00 72 1015.9
20210925154209 62 45 0.0 0.0 0.00 0.00 0.00 72 1015.9
20210925154109 62 45 1.0 1.0 0.00 0.00 0.00 72 1015.9
20210925154009 62 45 1.0 1.0 0.00 0.00 0.00 72 1015.9
20210925153909 62 45 1.0 1.0 0.00 0.00 0.00 72 1015.9
20210925153809 62 45 2.0 1.0 0.00 0.00 0.00 72 1015.9
20210925153709 62 45 2.0 2.0 0.00 0.00 0.00 72 1015.9
20210925153609 62 90 1.0 2.0 0.00 0.00 0.00 72 1015.9
20210925153509 62 90 2.0 0.0 0.00 0.00 0.00 72 1015.9
20210925153409 62 90 2.0 2.0 0.00 0.00 0.00 72 1015.9
20210925153309 62 68 2.0 2.0 0.00 0.00 0.00 72 1015.9
20210925153209 62 68 2.0 1.0 0.00 0.00 0.00 72 1015.9
20210925153109 62 90 1.0 1.0 0.00 0.00 0.00 72 1015.9
20210925153009 62 90 1.0 1.0 0.00 0.00 0.00 72 1015.9
20210925152909 62 90 1.0 2.0 0.00 0.00 0.00 72 1015.9
20210925152809 62 90 1.0 2.0 0.00 0.00 0.00 72 1015.9
20210925152709 62 90 1.0 1.0 0.00 0.00 0.00 72 1015.9
20210925152609 62 90 2.0 2.0 0.00 0.00 0.00 72 1015.9
20210925152509 62 90 2.0 2.0 0.00 0.00 0.00 72 1015.9
20210925152409 62 68 2.0 1.0 0.00 0.00 0.00 72 1015.9
20210925152309 62 90 1.0 2.0 0.00 0.00 0.00 72 1015.9
20210925152209 62 45 2.0 1.0 0.00 0.00 0.00 72 1015.9
20210925152109 62 45 2.0 2.0 0.00 0.00 0.00 72 1015.9
20210925152009 62 45 2.0 2.0 0.00 0.00 0.00 72 1015.9
20210925151909 62 45 2.0 2.0 0.00 0.00 0.00 72 1015.9
20210925151809 62 90 2.0 2.0 0.00 0.00 0.00 72 1015.9
20210925151709 62 68 2.0 2.0 0.00 0.00 0.00 72 1015.9
20210925151609 62 68 1.0 1.0 0.00 0.00 0.00 72 1015.9
20210925151509 62 68 2.0 2.0 0.00 0.00 0.00 72 1015.9
20210925151409 62 68 2.0 2.0 0.00 0.00 0.00 72 1015.9
20210925151309 62 90 2.0 2.0 0.00 0.00 0.00 72 1015.9
20210925151209 62 68 2.0 2.0 0.00 0.00 0.00 72 1015.9
20210925151109 62 90 2.0 2.0 0.00 0.00 0.00 72 1015.9
20210925151009 62 45 2.0 2.0 0.00 0.00 0.00 72 1015.9
20210925150909 62 45 1.0 2.0 0.00 0.00 0.00 72 1015.9
20210925150809 62 45 1.0 1.0 0.00 0.00 0.00 72 1015.9
20210925150709 62 68 2.0 1.0 0.00 0.00 0.00 72 1015.9
20210925150609 62 90 2.0 2.0 0.00 0.00 0.00 72 1015.9
20210925150509 62 90 1.0 2.0 0.00 0.00 0.00 72 1015.9
20210925150409 62 45 1.0 1.0 0.00 0.00 0.00 72 1015.9
20210925150309 62 45 1.0 1.0 0.00 0.00 0.00 72 1015.9
20210925150209 62 45 1.0 1.0 0.00 0.00 0.00 72 1015.9
20210925150109 62 45 1.0 2.0 0.00 0.00 0.00 72 1015.9
20210925150009 62 45 0.0 0.0 0.00 0.00 0.00 72 1015.9
20210925145909 62 45 0.0 0.0 0.00 0.00 0.00 72 1015.9
20210925145809 62 45 2.0 1.0 0.00 0.00 0.00 72 1015.9
20210925145709 62 45 1.0 2.0 0.00 0.00 0.00 72 1015.9
20210925145610 62 45 1.0 2.0 0.00 0.00 0.00 72 1015.9
20210925145509 62 45 1.0 2.0 0.00 0.00 0.00 72 1015.9
20210925145409 62 90 1.0 1.0 0.00 0.00 0.00 72 1015.9
20210925145309 62 90 0.0 2.0 0.00 0.00 0.00 72 1015.9
20210925145209 62 180 0.0 0.0 0.00 0.00 0.00 72 1015.9
20210925145109 62 180 0.0 0.0 0.00 0.00 0.00 72 1015.9
20210925145009 62 180 0.0 0.0 0.00 0.00 0.00 72 1015.9
20210925144909 62 180 0.0 0.0 0.00 0.00 0.00 72 1015.9
20210925144809 62 180 0.0 0.0 0.00 0.00 0.00 72 1015.9
20210925144709 62 180 0.0 0.0 0.00 0.00 0.00 72 1015.9
20210925144609 62 180 0.0 0.0 0.00 0.00 0.00 72 1015.9
20210925144509 62 180 0.0 0.0 0.00 0.00 0.00 72 1015.9
20210925144409 62 180 0.0 0.0 0.00 0.00 0.00 72 1015.9
20210925144309 62 180 0.0 0.0 0.00 0.00 0.00 72 1015.9
20210925144009 62 180 1.0 0.0 0.00 0.00 0.00 72 1015.9
20210925143809 62 180 0.0 0.0 0.00 0.00 0.00 72 1015.9
20210925143709 62 180 1.0 0.0 0.00 0.00 0.00 72 1015.9
20210925143509 62 180 1.0 1.0 0.00 0.00 0.00 72 1015.9
20210925143409 62 180 1.0 1.0 0.00 0.00 0.00 72 1015.9
20210925143309 62 180 1.0 1.0 0.00 0.00 0.00 72 1015.9
20210925143209 62 180 1.0 1.0 0.00 0.00 0.00 72 1015.9
20210925143009 62 180 0.0 0.0 0.00 0.00 0.00 72 1015.9
20210925142909 62 180 0.0 0.0 0.00 0.00 0.00 72 1015.9
20210925142809 62 180 1.0 1.0 0.00 0.00 0.00 72 1015.9
20210925142709 62 180 2.0 2.0 0.00 0.00 0.00 72 1015.9
20210925142609 62 180 1.0 1.0 0.00 0.00 0.00 72 1015.9
20210925142509 62 180 1.0 2.0 0.00 0.00 0.00 72 1015.9
20210925142409 62 180 0.0 0.0 0.00 0.00 0.00 72 1014.9
20210925142309 62 180 2.0 0.0 0.00 0.00 0.00 72 1014.9
20210925142209 62 180 2.0 2.0 0.00 0.00 0.00 72 1014.9
20210925142009 62 180 0.0 0.0 0.00 0.00 0.00 72 1014.9
20210925141909 62 225 1.0 0.0 0.00 0.00 0.00 72 1014.9
20210925141809 62 135 1.0 1.0 0.00 0.00 0.00 72 1014.9
20210925141609 62 202 0.0 0.0 0.00 0.00 0.00 72 1014.9
20210925141509 62 225 0.0 0.0 0.00 0.00 0.00 72 1014.9
20210925141309 62 225 1.0 2.0 0.00 0.00 0.00 72 1014.9
20210925141209 62 225 0.0 0.0 0.00 0.00 0.00 72 1014.9
20210925141109 62 225 1.0 1.0 0.00 0.00 0.00 72 1014.9
20210925141009 62 225 0.0 1.0 0.00 0.00 0.00 72 1014.9
20210925140909 62 225 0.0 1.0 0.00 0.00 0.00 72 1014.9
20210925140809 62 202 0.0 0.0 0.00 0.00 0.00 72 1014.9
20210925140709 62 225 0.0 0.0 0.00 0.00 0.00 72 1014.9
20210925140610 62 225 0.0 0.0 0.00 0.00 0.00 72 1014.9
20210925140509 62 225 0.0 0.0 0.00 0.00 0.00 72 1014.9
20210925140409 62 225 0.0 0.0 0.00 0.00 0.00 72 1014.9
20210925140309 62 225 0.0 0.0 0.00 0.00 0.00 72 1014.9
20210925140209 62 225 1.0 0.0 0.00 0.00 0.00 72 1014.9
20210925140009 62 225 1.0 2.0 0.00 0.00 0.00 72 1014.9
20210925135809 62 270 2.0 1.0 0.00 0.00 0.00 72 1014.9
20210925135609 62 112 1.0 1.0 0.00 0.00 0.00 72 1014.9
20210925135509 62 135 0.0 1.0 0.00 0.00 0.00 72 1014.9
20210925135409 62 22 0.0 0.0 0.00 0.00 0.00 72 1014.9
20210925135309 62 22 0.0 0.0 0.00 0.00 0.00 72 1014.9
20210925135109 62 22 0.0 0.0 0.00 0.00 0.00 72 1014.9
20210925135009 62 22 0.0 0.0 0.00 0.00 0.00 72 1014.9
20210925134709 62 22 0.0 0.0 0.00 0.00 0.00 72 1014.9
20210925134509 62 22 0.0 0.0 0.00 0.00 0.00 72 1014.9
20210925134409 62 22 1.0 1.0 0.00 0.00 0.00 72 1014.9
20210925134309 62 22 0.0 1.0 0.00 0.00 0.00 72 1014.9
20210925134209 62 22 0.0 0.0 0.00 0.00 0.00 72 1014.9
20210925134009 62 90 0.0 0.0 0.00 0.00 0.00 72 1014.9
20210925133909 62 90 0.0 0.0 0.00 0.00 0.00 72 1014.9
20210925133709 62 90 0.0 0.0 0.00 0.00 0.00 72 1014.9
20210925133609 62 90 1.0 1.0 0.00 0.00 0.00 72 1014.9
20210925133509 62 45 1.0 2.0 0.00 0.00 0.00 72 1014.9
20210925133409 62 45 1.0 2.0 0.00 0.00 0.00 72 1014.9
20210925133209 62 45 1.0 2.0 0.00 0.00 0.00 72 1014.9
20210925133109 62 45 2.0 1.0 0.00 0.00 0.00 72 1014.9
20210925133009 62 45 0.0 2.0 0.00 0.00 0.00 72 1014.9
20210925132909 62 90 0.0 0.0 0.00 0.00 0.00 72 1014.9
20210925132809 62 90 0.0 0.0 0.00 0.00 0.00 73 1014.9
20210925132711 62 90 0.0 0.0 0.00 0.00 0.00 73 1014.9
20210925132609 62 90 0.0 0.0 0.00 0.00 0.00 73 1014.9
20210925132510 62 90 0.0 0.0 0.00 0.00 0.00 73 1014.9
20210925132409 62 90 0.0 0.0 0.00 0.00 0.00 73 1014.9
20210925132309 62 90 0.0 0.0 0.00 0.00 0.00 73 1014.9
20210925132209 62 90 0.0 0.0 0.00 0.00 0.00 73 1014.9
20210925132109 62 90 0.0 0.0 0.00 0.00 0.00 73 1014.9
20210925132010 62 90 0.0 0.0 0.00 0.00 0.00 73 1014.9
20210925131909 62 90 0.0 0.0 0.00 0.00 0.00 73 1014.9
20210925131809 62 90 0.0 0.0 0.00 0.00 0.00 73 1014.9
20210925131709 62 135 0.0 0.0 0.00 0.00 0.00 72 1014.9
20210925131609 62 135 0.0 0.0 0.00 0.00 0.00 72 1014.9
20210925131509 62 135 0.0 0.0 0.00 0.00 0.00 72 1014.9
20210925131309 62 45 0.0 0.0 0.00 0.00 0.00 72 1014.9
20210925131109 62 45 0.0 0.0 0.00 0.00 0.00 72 1014.9
20210925131009 62 45 0.0 0.0 0.00 0.00 0.00 72 1014.9
20210925130709 62 0 1.0 0.0 0.00 0.00 0.00 72 1014.9
20210925130609 62 68 3.0 2.0 0.00 0.00 0.00 72 1014.9
20210925130509 62 45 3.0 3.0 0.00 0.00 0.00 72 1014.9
20210925130409 62 45 2.0 3.0 0.00 0.00 0.00 72 1014.9
20210925130309 62 45 2.0 2.0 0.00 0.00 0.00 72 1014.9
20210925130209 62 45 3.0 2.0 0.00 0.00 0.00 72 1014.9
20210925130109 62 68 2.0 3.0 0.00 0.00 0.00 72 1014.9
20210925130009 62 45 2.0 2.0 0.00 0.00 0.00 73 1014.9
20210925125909 62 45 1.0 3.0 0.00 0.00 0.00 73 1014.9
20210925125809 62 90 1.0 2.0 0.00 0.00 0.00 73 1014.9
20210925125709 62 135 1.0 1.0 0.00 0.00 0.00 73 1014.9
20210925125609 62 112 2.0 2.0 0.00 0.00 0.00 72 1014.9
20210925125510 62 112 1.0 1.0 0.00 0.00 0.00 72 1014.9
20210925125309 62 68 2.0 1.0 0.00 0.00 0.00 72 1014.9
20210925124909 62 45 1.0 1.0 0.00 0.00 0.00 72 1014.9
20210925124809 62 90 2.0 2.0 0.00 0.00 0.00 72 1014.9
20210925124709 62 45 2.0 2.0 0.00 0.00 0.00 72 1014.9
20210925124609 62 45 2.0 1.0 0.00 0.00 0.00 72 1014.9
20210925124509 62 45 2.0 2.0 0.00 0.00 0.00 72 1014.9
20210925124409 62 45 2.0 2.0 0.00 0.00 0.00 72 1014.9
20210925124309 62 90 3.0 2.0 0.00 0.00 0.00 72 1014.9
20210925124009 62 45 1.0 2.0 0.00 0.00 0.00 72 1014.9
20210925123909 62 45 2.0 1.0 0.00 0.00 0.00 72 1014.9
20210925123812 62 45 2.0 2.0 0.00 0.00 0.00 72 1014.9
20210925123709 62 90 0.0 0.0 0.00 0.00 0.00 72 1014.9
20210925123609 62 90 0.0 0.0 0.00 0.00 0.00 72 1014.9
20210925123509 62 90 2.0 1.0 0.00 0.00 0.00 72 1014.9
20210925123309 62 90 2.0 2.0 0.00 0.00 0.00 72 1014.9
20210925123209 62 90 2.0 2.0 0.00 0.00 0.00 72 1014.9
20210925123109 62 45 3.0 3.0 0.00 0.00 0.00 72 1014.9
20210925123009 62 45 3.0 2.0 0.00 0.00 0.00 72 1014.9
20210925122909 62 45 2.0 3.0 0.00 0.00 0.00 73 1014.9
20210925122809 62 68 2.0 3.0 0.00 0.00 0.00 73 1014.9
20210925122709 62 90 1.0 1.0 0.00 0.00 0.00 72 1014.9
20210925122609 62 90 1.0 1.0 0.00 0.00 0.00 73 1014.9
20210925122509 62 90 2.0 2.0 0.00 0.00 0.00 73 1014.9
20210925122409 62 45 2.0 3.0 0.00 0.00 0.00 73 1014.9
20210925122309 62 45 2.0 2.0 0.00 0.00 0.00 72 1014.9
20210925122109 62 45 1.0 3.0 0.00 0.00 0.00 72 1014.9
20210925122009 62 45 1.0 1.0 0.00 0.00 0.00 72 1014.9
20210925121909 62 90 1.0 2.0 0.00 0.00 0.00 72 1014.9
20210925121809 62 90 2.0 1.0 0.00 0.00 0.00 72 1014.9
20210925121709 62 45 2.0 2.0 0.00 0.00 0.00 72 1014.9
20210925121609 62 90 2.0 2.0 0.00 0.00 0.00 72 1014.9
20210925121509 62 68 3.0 2.0 0.00 0.00 0.00 72 1014.9
20210925121409 62 45 1.0 3.0 0.00 0.00 0.00 72 1014.9
20210925121309 62 45 0.0 0.0 0.00 0.00 0.00 72 1014.9
20210925121209 62 0 1.0 1.0 0.00 0.00 0.00 72 1014.9
20210925121109 62 0 1.0 1.0 0.00 0.00 0.00 72 1014.9
20210925121009 62 0 1.0 0.0 0.00 0.00 0.00 72 1014.9
20210925120909 62 90 1.0 1.0 0.00 0.00 0.00 72 1014.9
20210925120809 62 90 0.0 2.0 0.00 0.00 0.00 72 1014.9
20210925120709 62 0 0.0 0.0 0.00 0.00 0.00 72 1014.9
20210925120509 62 90 0.0 0.0 0.00 0.00 0.00 72 1014.9
20210925120409 62 90 0.0 0.0 0.00 0.00 0.00 72 1014.9
20210925120309 62 90 0.0 0.0 0.00 0.00 0.00 72 1014.9
20210925120209 62 90 0.0 0.0 0.00 0.00 0.00 72 1014.9
20210925120109 62 90 0.0 0.0 0.00 0.00 0.00 72 1014.9
20210925120009 62 90 0.0 0.0 0.00 0.00 0.00 72 1014.9
20210925115809 62 90 2.0 2.0 0.00 0.00 0.00 72 1014.9
20210925115709 62 45 2.0 2.0 0.00 0.00 0.00 72 1014.9
20210925115509 62 315 1.0 1.0 0.00 0.00 0.00 72 1014.9
20210925115409 62 315 1.0 1.0 0.00 0.00 0.00 72 1014.9
20210925115309 62 315 0.0 0.0 0.00 0.00 0.00 72 1014.9
20210925115109 62 45 0.0 0.0 0.00 0.00 0.00 72 1014.9
20210925115009 62 45 0.0 0.0 0.00 0.00 0.00 72 1014.9
20210925114909 62 45 0.0 1.0 0.00 0.00 0.00 72 1014.9
20210925114809 62 0 0.0 0.0 0.00 0.00 0.00 72 1014.9
20210925114709 62 0 0.0 0.0 0.00 0.00 0.00 72 1014.9
20210925114609 62 0 0.0 0.0 0.00 0.00 0.00 72 1014.9
20210925114509 62 0 0.0 0.0 0.00 0.00 0.00 72 1014.9
20210925114410 62 0 1.0 0.0 0.00 0.00 0.00 72 1014.9
20210925114309 62 0 0.0 0.0 0.00 0.00 0.00 72 1014.9
20210925114209 62 0 0.0 0.0 0.00 0.00 0.00 72 1014.9
20210925114109 62 0 0.0 0.0 0.00 0.00 0.00 72 1014.9
20210925114009 62 0 0.0 0.0 0.00 0.00 0.00 72 1014.9
20210925113909 62 0 0.0 0.0 0.00 0.00 0.00 72 1014.9
20210925113809 62 0 0.0 0.0 0.00 0.00 0.00 72 1014.9
20210925113709 62 0 0.0 0.0 0.00 0.00 0.00 72 1014.9
20210925113609 62 0 1.0 0.0 0.00 0.00 0.00 72 1014.9
20210925113509 62 0 0.0 1.0 0.00 0.00 0.00 72 1014.9
20210925113409 62 0 0.0 0.0 0.00 0.00 0.00 72 1014.9
20210925113309 62 0 0.0 0.0 0.00 0.00 0.00 72 1014.9
20210925113209 62 90 0.0 0.0 0.00 0.00 0.00 72 1014.9
20210925113109 62 90 1.0 1.0 0.00 0.00 0.00 72 1014.9
20210925112909 62 90 1.0 2.0 0.00 0.00 0.00 73 1014.9
20210925112809 62 180 1.0 0.0 0.00 0.00 0.00 73 1014.9
20210925112709 62 225 1.0 1.0 0.00 0.00 0.00 73 1014.9
20210925112609 62 225 1.0 0.0 0.00 0.00 0.00 73 1014.9
20210925112509 62 135 0.0 1.0 0.00 0.00 0.00 72 1014.9
20210925112409 62 45 0.0 0.0 0.00 0.00 0.00 72 1014.9
20210925112310 62 45 0.0 0.0 0.00 0.00 0.00 72 1014.9
20210925112109 62 45 2.0 1.0 0.00 0.00 0.00 72 1014.9
20210925112009 62 45 2.0 2.0 0.00 0.00 0.00 72 1014.9
20210925111909 62 45 2.0 2.0 0.00 0.00 0.00 72 1014.9
20210925111809 62 45 2.0 3.0 0.00 0.00 0.00 72 1014.9
20210925111409 62 45 0.0 0.0 0.00 0.00 0.00 72 1014.9
20210925111309 62 45 0.0 0.0 0.00 0.00 0.00 72 1014.9
20210925111209 62 45 1.0 1.0 0.00 0.00 0.00 72 1014.9
20210925111109 62 45 0.0 0.0 0.00 0.00 0.00 72 1014.9
20210925110909 62 45 0.0 0.0 0.00 0.00 0.00 72 1014.9
20210925110809 62 45 0.0 0.0 0.00 0.00 0.00 72 1014.9
20210925110709 62 45 0.0 0.0 0.00 0.00 0.00 72 1014.9
20210925110609 62 45 0.0 0.0 0.00 0.00 0.00 72 1014.9
20210925110310 62 22 2.0 2.0 0.00 0.00 0.00 72 1014.9
20210925110209 62 22 2.0 2.0 0.00 0.00 0.00 72 1014.9
20210925110109 62 45 1.0 1.0 0.00 0.00 0.00 72 1014.9
20210925110009 62 45 1.0 0.0 0.00 0.00 0.00 72 1014.9
20210925105809 62 68 1.0 1.0 0.00 0.00 0.00 72 1014.9
20210925105709 62 68 1.0 1.0 0.00 0.00 0.00 73 1014.9
20210925105609 62 68 1.0 1.0 0.00 0.00 0.00 73 1014.9
20210925105409 62 68 1.0 2.0 0.00 0.00 0.00 73 1014.9
20210925105309 62 68 1.0 2.0 0.00 0.00 0.00 73 1014.9
20210925105209 62 90 1.0 2.0 0.00 0.00 0.00 72 1014.9
20210925105109 62 90 2.0 2.0 0.00 0.00 0.00 72 1014.9
20210925105009 62 90 1.0 1.0 0.00 0.00 0.00 72 1014.9
20210925104909 62 90 1.0 2.0 0.00 0.00 0.00 72 1014.9
20210925104809 62 90 2.0 2.0 0.00 0.00 0.00 72 1014.9
20210925104709 62 68 2.0 2.0 0.00 0.00 0.00 72 1014.9
20210925104609 61 68 0.0 0.0 0.00 0.00 0.00 72 1014.9
20210925104409 61 90 1.0 1.0 0.00 0.00 0.00 72 1014.9
20210925104209 61 45 0.0 0.0 0.00 0.00 0.00 72 1014.9
20210925104109 61 45 0.0 0.0 0.00 0.00 0.00 72 1014.9
20210925103909 61 45 2.0 1.0 0.00 0.00 0.00 72 1014.9
20210925103809 61 45 2.0 2.0 0.00 0.00 0.00 72 1014.9
20210925103709 61 45 1.0 2.0 0.00 0.00 0.00 72 1014.9
20210925103609 61 45 0.0 0.0 0.00 0.00 0.00 72 1014.9
20210925103509 61 45 0.0 0.0 0.00 0.00 0.00 72 1014.9
20210925103409 61 45 0.0 0.0 0.00 0.00 0.00 72 1014.9
20210925103309 61 45 1.0 1.0 0.00 0.00 0.00 72 1014.9
20210925103209 61 45 1.0 2.0 0.00 0.00 0.00 72 1014.9
20210925103111 61 45 1.0 1.0 0.00 0.00 0.00 72 1014.9
20210925103009 61 45 1.0 1.0 0.00 0.00 0.00 72 1014.9
20210925102909 61 45 0.0 0.0 0.00 0.00 0.00 72 1014.9
20210925102809 61 45 0.0 0.0 0.00 0.00 0.00 72 1014.9
20210925102709 61 45 1.0 0.0 0.00 0.00 0.00 72 1014.9
20210925102609 61 45 0.0 1.0 0.00 0.00 0.00 72 1014.9
20210925102509 61 180 0.0 0.0 0.00 0.00 0.00 72 1014.9
20210925102310 61 225 1.0 1.0 0.00 0.00 0.00 72 1014.9
20210925102209 61 180 0.0 1.0 0.00 0.00 0.00 72 1014.9
20210925102009 61 90 0.0 0.0 0.00 0.00 0.00 72 1014.9
20210925101909 61 90 1.0 1.0 0.00 0.00 0.00 72 1014.9
20210925101809 61 90 0.0 2.0 0.00 0.00 0.00 72 1014.9
20210925101709 61 45 0.0 0.0 0.00 0.00 0.00 72 1014.9
20210925101609 61 45 0.0 0.0 0.00 0.00 0.00 72 1014.9
20210925101509 61 45 0.0 0.0 0.00 0.00 0.00 72 1014.9
20210925101409 61 90 0.0 0.0 0.00 0.00 0.00 72 1014.9
20210925101209 61 90 0.0 1.0 0.00 0.00 0.00 72 1014.9
20210925101109 61 90 0.0 0.0 0.00 0.00 0.00 72 1014.9
20210925101009 61 90 0.0 0.0 0.00 0.00 0.00 72 1014.9
20210925100809 61 68 0.0 0.0 0.00 0.00 0.00 72 1015.9
20210925100709 61 68 1.0 0.0 0.00 0.00 0.00 72 1015.9
20210925100609 61 68 2.0 2.0 0.00 0.00 0.00 72 1015.9
20210925100509 61 45 2.0 2.0 0.00 0.00 0.00 73 1015.9
20210925100409 61 90 0.0 2.0 0.00 0.00 0.00 73 1015.9
20210925100309 61 90 0.0 0.0 0.00 0.00 0.00 73 1015.9
20210925100209 61 90 0.0 0.0 0.00 0.00 0.00 72 1015.9
20210925100109 61 90 1.0 1.0 0.00 0.00 0.00 72 1015.9
20210925100009 61 90 1.0 1.0 0.00 0.00 0.00 72 1015.9
20210925095909 61 90 0.0 2.0 0.00 0.00 0.00 72 1015.9
20210925095809 61 68 0.0 0.0 0.00 0.00 0.00 72 1015.9
20210925095709 60 68 0.0 0.0 0.00 0.00 0.00 72 1015.9
20210925095609 60 68 0.0 0.0 0.00 0.00 0.00 72 1015.9
20210925095509 60 68 0.0 0.0 0.00 0.00 0.00 72 1015.9
20210925095409 60 68 1.0 1.0 0.00 0.00 0.00 72 1015.9
20210925095209 60 68 2.0 2.0 0.00 0.00 0.00 72 1015.9
20210925095109 60 68 0.0 1.0 0.00 0.00 0.00 72 1015.9
20210925095009 60 135 0.0 0.0 0.00 0.00 0.00 72 1015.9
20210925094909 60 158 0.0 0.0 0.00 0.00 0.00 72 1015.9
20210925094509 60 158 0.0 1.0 0.00 0.00 0.00 72 1015.9
20210925094409 60 135 0.0 0.0 0.00 0.00 0.00 72 1015.9
20210925094309 60 135 0.0 0.0 0.00 0.00 0.00 72 1015.9
20210925094209 60 135 0.0 1.0 0.00 0.00 0.00 72 1015.9
20210925094109 60 135 0.0 0.0 0.00 0.00 0.00 72 1015.9
20210925094009 60 135 0.0 0.0 0.00 0.00 0.00 72 1015.9
20210925093909 60 90 0.0 0.0 0.00 0.00 0.00 72 1014.9
20210925093809 60 90 0.0 0.0 0.00 0.00 0.00 72 1014.9
20210925093709 60 90 0.0 0.0 0.00 0.00 0.00 72 1014.9
20210925093609 60 90 0.0 1.0 0.00 0.00 0.00 72 1014.9
20210925093409 60 90 0.0 0.0 0.00 0.00 0.00 72 1014.9
20210925093309 60 90 0.0 0.0 0.00 0.00 0.00 72 1014.9
20210925093209 60 90 0.0 0.0 0.00 0.00 0.00 72 1014.9
20210925093109 60 90 0.0 0.0 0.00 0.00 0.00 72 1014.9
20210925093009 60 90 0.0 0.0 0.00 0.00 0.00 72 1014.9
20210925092909 60 90 0.0 0.0 0.00 0.00 0.00 72 1014.9
20210925092809 60 90 0.0 0.0 0.00 0.00 0.00 71 1014.9
20210925092609 60 90 0.0 0.0 0.00 0.00 0.00 71 1014.9
20210925092509 60 90 0.0 0.0 0.00 0.00 0.00 71 1014.9
20210925092409 60 90 0.0 0.0 0.00 0.00 0.00 71 1014.9
20210925092309 60 90 0.0 0.0 0.00 0.00 0.00 71 1014.9
20210925092209 60 90 0.0 0.0 0.00 0.00 0.00 71 1014.9
20210925092109 60 90 0.0 0.0 0.00 0.00 0.00 71 1014.9
20210925092009 60 90 0.0 0.0 0.00 0.00 0.00 71 1014.9
20210925091909 60 90 0.0 0.0 0.00 0.00 0.00 71 1014.9
20210925091809 60 90 0.0 0.0 0.00 0.00 0.00 71 1014.9
20210925091710 60 90 0.0 0.0 0.00 0.00 0.00 71 1014.9
20210925091609 60 90 0.0 0.0 0.00 0.00 0.00 71 1014.9
20210925091509 60 90 0.0 0.0 0.00 0.00 0.00 71 1014.9
20210925091309 60 90 0.0 0.0 0.00 0.00 0.00 71 1014.9
20210925091209 60 90 0.0 0.0 0.00 0.00 0.00 71 1014.9
20210925091109 60 90 0.0 0.0 0.00 0.00 0.00 71 1014.9
20210925090909 60 90 0.0 0.0 0.00 0.00 0.00 71 1014.9
20210925090809 60 90 0.0 0.0 0.00 0.00 0.00 71 1014.9
20210925090609 60 90 0.0 0.0 0.00 0.00 0.00 71 1014.9
20210925090509 60 90 0.0 0.0 0.00 0.00 0.00 71 1014.9
20210925090409 60 90 0.0 0.0 0.00 0.00 0.00 71 1014.9
20210925090109 59 90 0.0 0.0 0.00 0.00 0.00 71 1014.9
20210925090009 59 90 0.0 0.0 0.00 0.00 0.00 70 1014.9
20210925085809 59 90 0.0 0.0 0.00 0.00 0.00 70 1014.9
20210925085609 59 90 0.0 0.0 0.00 0.00 0.00 70 1014.9
20210925085509 59 90 1.0 0.0 0.00 0.00 0.00 70 1014.9
20210925085409 59 90 1.0 1.0 0.00 0.00 0.00 70 1014.9
20210925085309 59 90 1.0 1.0 0.00 0.00 0.00 70 1014.9
20210925085209 59 90 1.0 1.0 0.00 0.00 0.00 70 1014.9
20210925085109 59 90 1.0 2.0 0.00 0.00 0.00 70 1014.9
20210925085009 59 90 0.0 0.0 0.00 0.00 0.00 70 1014.9
20210925084909 59 90 0.0 0.0 0.00 0.00 0.00 70 1014.9
20210925084809 59 90 0.0 0.0 0.00 0.00 0.00 70 1014.9
20210925084709 59 90 0.0 0.0 0.00 0.00 0.00 70 1014.9
20210925084609 59 90 0.0 0.0 0.00 0.00 0.00 70 1014.9
20210925084409 59 90 0.0 0.0 0.00 0.00 0.00 70 1014.9
20210925084209 59 90 0.0 0.0 0.00 0.00 0.00 70 1014.9
20210925084109 59 90 0.0 0.0 0.00 0.00 0.00 70 1014.9
20210925084009 59 90 0.0 0.0 0.00 0.00 0.00 70 1014.9
20210925083909 59 90 0.0 0.0 0.00 0.00 0.00 69 1014.9
20210925083809 59 90 0.0 0.0 0.00 0.00 0.00 69 1014.9
20210925083709 59 90 0.0 0.0 0.00 0.00 0.00 69 1014.9
20210925083609 59 90 0.0 0.0 0.00 0.00 0.00 69 1014.9
20210925083509 59 90 0.0 0.0 0.00 0.00 0.00 69 1014.9
20210925083409 59 90 0.0 0.0 0.00 0.00 0.00 69 1014.9
20210925083309 59 90 0.0 0.0 0.00 0.00 0.00 69 1014.9
20210925083209 60 90 0.0 0.0 0.00 0.00 0.00 69 1014.9
20210925083009 60 90 0.0 0.0 0.00 0.00 0.00 69 1014.9
20210925082909 60 90 0.0 0.0 0.00 0.00 0.00 69 1014.9
20210925082809 60 90 0.0 0.0 0.00 0.00 0.00 69 1014.9
20210925082709 60 90 0.0 0.0 0.00 0.00 0.00 69 1014.9
20210925082609 60 90 0.0 0.0 0.00 0.00 0.00 69 1014.9
20210925082509 60 90 0.0 0.0 0.00 0.00 0.00 69 1014.9
20210925082409 60 90 0.0 0.0 0.00 0.00 0.00 69 1014.9
20210925082209 60 90 0.0 0.0 0.00 0.00 0.00 69 1014.9
20210925082109 60 90 0.0 0.0 0.00 0.00 0.00 69 1014.9
20210925082009 60 90 0.0 0.0 0.00 0.00 0.00 69 1014.9
20210925081909 60 90 0.0 0.0 0.00 0.00 0.00 69 1014.9
20210925081809 60 90 0.0 0.0 0.00 0.00 0.00 69 1014.9
20210925081709 60 90 0.0 0.0 0.00 0.00 0.00 69 1014.9
20210925081609 60 90 0.0 0.0 0.00 0.00 0.00 69 1014.9
20210925081509 60 90 0.0 0.0 0.00 0.00 0.00 69 1014.9
20210925081409 60 90 0.0 0.0 0.00 0.00 0.00 69 1014.9
20210925081309 60 90 0.0 0.0 0.00 0.00 0.00 69 1014.9
20210925081209 60 90 0.0 0.0 0.00 0.00 0.00 69 1014.9
20210925081109 60 90 0.0 0.0 0.00 0.00 0.00 69 1014.9
20210925081009 60 90 0.0 0.0 0.00 0.00 0.00 69 1014.9
20210925080909 60 90 0.0 0.0 0.00 0.00 0.00 69 1014.9
20210925080809 60 90 0.0 0.0 0.00 0.00 0.00 69 1014.9
20210925080609 60 90 0.0 0.0 0.00 0.00 0.00 69 1014.9
20210925080309 60 90 0.0 0.0 0.00 0.00 0.00 69 1014.9
20210925080109 60 90 0.0 0.0 0.00 0.00 0.00 69 1014.9
20210925075909 60 90 0.0 0.0 0.00 0.00 0.00 69 1014.9
20210925075709 60 90 0.0 0.0 0.00 0.00 0.00 69 1014.9
20210925075509 60 90 0.0 0.0 0.00 0.00 0.00 69 1014.9
20210925075409 60 90 0.0 0.0 0.00 0.00 0.00 69 1014.9
20210925075309 60 90 0.0 0.0 0.00 0.00 0.00 68 1014.9
20210925075209 60 90 0.0 0.0 0.00 0.00 0.00 68 1014.9
20210925075109 60 90 0.0 0.0 0.00 0.00 0.00 68 1014.9
20210925075009 60 90 0.0 0.0 0.00 0.00 0.00 68 1014.9
20210925074909 60 22 0.0 0.0 0.00 0.00 0.00 68 1014.9
20210925074709 60 22 0.0 0.0 0.00 0.00 0.00 68 1014.9
20210925074609 60 22 0.0 0.0 0.00 0.00 0.00 68 1014.9
20210925074509 60 22 0.0 0.0 0.00 0.00 0.00 68 1014.9
20210925074409 60 22 0.0 0.0 0.00 0.00 0.00 68 1014.9
20210925074309 60 22 0.0 0.0 0.00 0.00 0.00 68 1014.9
20210925074209 60 90 0.0 0.0 0.00 0.00 0.00 68 1014.9
20210925074109 60 90 0.0 0.0 0.00 0.00 0.00 68 1014.9
20210925074009 60 90 0.0 0.0 0.00 0.00 0.00 68 1014.9
20210925073909 60 90 0.0 0.0 0.00 0.00 0.00 68 1014.9
20210925073809 60 90 0.0 0.0 0.00 0.00 0.00 68 1014.9
20210925073610 60 90 0.0 0.0 0.00 0.00 0.00 68 1014.9
20210925073509 60 90 0.0 0.0 0.00 0.00 0.00 68 1014.9
20210925073409 60 90 0.0 0.0 0.00 0.00 0.00 68 1014.9
20210925073309 60 90 0.0 0.0 0.00 0.00 0.00 68 1014.9
20210925073109 61 90 0.0 0.0 0.00 0.00 0.00 68 1014.9
20210925073009 61 90 0.0 0.0 0.00 0.00 0.00 68 1014.9
20210925072909 61 90 0.0 0.0 0.00 0.00 0.00 68 1014.9
20210925072809 61 90 0.0 0.0 0.00 0.00 0.00 68 1014.9
20210925072709 61 90 0.0 0.0 0.00 0.00 0.00 68 1014.9
20210925072609 61 90 0.0 0.0 0.00 0.00 0.00 68 1014.9
20210925072509 61 90 0.0 0.0 0.00 0.00 0.00 68 1014.9
20210925072309 61 90 0.0 0.0 0.00 0.00 0.00 68 1014.9
20210925072209 61 90 0.0 0.0 0.00 0.00 0.00 68 1014.9
20210925072009 61 90 0.0 0.0 0.00 0.00 0.00 68 1014.9
20210925071809 61 90 0.0 0.0 0.00 0.00 0.00 68 1014.9
20210925071709 61 90 0.0 0.0 0.00 0.00 0.00 68 1014.9
20210925071609 61 90 0.0 0.0 0.00 0.00 0.00 68 1014.9
20210925071409 61 90 0.0 0.0 0.00 0.00 0.00 67 1014.9
20210925071309 61 90 0.0 0.0 0.00 0.00 0.00 67 1014.9
20210925071209 61 90 0.0 0.0 0.00 0.00 0.00 67 1014.9
20210925071109 61 90 0.0 0.0 0.00 0.00 0.00 67 1014.9
20210925071009 61 90 0.0 0.0 0.00 0.00 0.00 67 1014.9
20210925070909 61 90 0.0 0.0 0.00 0.00 0.00 67 1014.9
20210925070809 61 90 0.0 0.0 0.00 0.00 0.00 67 1014.9
20210925070609 61 90 0.0 0.0 0.00 0.00 0.00 67 1014.9
20210925070509 61 90 0.0 0.0 0.00 0.00 0.00 67 1014.9
20210925070409 61 90 0.0 0.0 0.00 0.00 0.00 67 1014.9
20210925070209 61 90 0.0 0.0 0.00 0.00 0.00 67 1014.9
20210925070109 61 90 0.0 0.0 0.00 0.00 0.00 67 1014.9
20210925070009 61 90 0.0 0.0 0.00 0.00 0.00 67 1014.9
20210925065909 61 90 0.0 0.0 0.00 0.00 0.00 67 1014.9
20210925065809 61 90 0.0 0.0 0.00 0.00 0.00 67 1014.9
20210925065709 61 90 0.0 0.0 0.00 0.00 0.00 67 1014.9
20210925065609 61 90 0.0 0.0 0.00 0.00 0.00 67 1014.9
20210925065509 61 90 0.0 0.0 0.00 0.00 0.00 67 1014.9
20210925065411 61 90 0.0 0.0 0.00 0.00 0.00 67 1014.9
20210925065309 61 90 0.0 0.0 0.00 0.00 0.00 67 1014.9
20210925065209 61 90 0.0 0.0 0.00 0.00 0.00 67 1014.9
20210925065109 61 90 0.0 0.0 0.00 0.00 0.00 67 1014.9
20210925064909 61 90 0.0 0.0 0.00 0.00 0.00 67 1014.9
20210925064809 61 90 0.0 0.0 0.00 0.00 0.00 67 1014.9
20210925064709 61 90 0.0 0.0 0.00 0.00 0.00 67 1014.9
20210925064609 61 90 0.0 0.0 0.00 0.00 0.00 67 1014.9
20210925064509 61 90 0.0 0.0 0.00 0.00 0.00 67 1014.9
20210925064309 61 90 0.0 0.0 0.00 0.00 0.00 67 1014.9
20210925064209 61 90 0.0 0.0 0.00 0.00 0.00 67 1014.9
20210925064109 61 90 0.0 0.0 0.00 0.00 0.00 67 1014.9
20210925064009 61 90 0.0 0.0 0.00 0.00 0.00 66 1014.9
20210925063909 61 90 0.0 0.0 0.00 0.00 0.00 66 1013.9
20210925063709 61 90 0.0 0.0 0.00 0.00 0.00 66 1013.9
20210925063609 62 90 0.0 0.0 0.00 0.00 0.00 66 1013.9
20210925063409 62 90 0.0 0.0 0.00 0.00 0.00 66 1013.9
20210925063309 62 90 0.0 0.0 0.00 0.00 0.00 66 1013.9
20210925063209 62 90 0.0 0.0 0.00 0.00 0.00 66 1013.9
20210925063009 62 90 0.0 0.0 0.00 0.00 0.00 66 1013.9
20210925062909 62 90 0.0 0.0 0.00 0.00 0.00 66 1013.9
20210925062809 62 90 0.0 0.0 0.00 0.00 0.00 66 1013.9
20210925062709 62 90 0.0 0.0 0.00 0.00 0.00 66 1013.9
20210925062609 62 90 0.0 0.0 0.00 0.00 0.00 66 1013.9
20210925062509 62 90 0.0 0.0 0.00 0.00 0.00 66 1013.9
20210925062409 62 90 0.0 0.0 0.00 0.00 0.00 66 1013.9
20210925062109 62 90 0.0 0.0 0.00 0.00 0.00 66 1013.9
20210925062009 62 90 0.0 0.0 0.00 0.00 0.00 66 1013.9
20210925061909 62 90 0.0 0.0 0.00 0.00 0.00 66 1013.9
20210925061809 62 90 0.0 0.0 0.00 0.00 0.00 66 1013.9
20210925061709 62 90 0.0 0.0 0.00 0.00 0.00 66 1013.9
20210925061609 62 90 0.0 0.0 0.00 0.00 0.00 66 1013.9
20210925061509 62 90 0.0 0.0 0.00 0.00 0.00 66 1013.9
20210925061409 62 90 0.0 0.0 0.00 0.00 0.00 66 1013.9
20210925061309 62 90 0.0 0.0 0.00 0.00 0.00 66 1013.9
20210925061209 62 90 0.0 0.0 0.00 0.00 0.00 66 1013.9
20210925061009 62 90 0.0 0.0 0.00 0.00 0.00 66 1013.9
20210925060909 62 90 0.0 0.0 0.00 0.00 0.00 66 1014.9
20210925060809 62 90 0.0 0.0 0.00 0.00 0.00 66 1014.9
20210925060709 62 90 0.0 0.0 0.00 0.00 0.00 66 1014.9
20210925060609 62 90 0.0 0.0 0.00 0.00 0.00 66 1014.9
20210925060509 62 90 0.0 0.0 0.00 0.00 0.00 66 1014.9
20210925060409 62 90 0.0 0.0 0.00 0.00 0.00 66 1014.9
20210925060209 62 90 0.0 0.0 0.00 0.00 0.00 65 1014.9
20210925060109 62 90 0.0 0.0 0.00 0.00 0.00 65 1014.9
20210925060009 62 90 0.0 0.0 0.00 0.00 0.00 65 1014.9
20210925055909 62 90 0.0 0.0 0.00 0.00 0.00 65 1014.9
20210925055809 62 90 0.0 0.0 0.00 0.00 0.00 65 1014.9
20210925055709 62 90 0.0 0.0 0.00 0.00 0.00 65 1014.9
20210925055609 62 90 0.0 0.0 0.00 0.00 0.00 65 1014.9
20210925055509 62 90 0.0 0.0 0.00 0.00 0.00 65 1014.9
20210925055409 62 90 0.0 0.0 0.00 0.00 0.00 65 1013.9
20210925055210 62 90 0.0 0.0 0.00 0.00 0.00 65 1013.9
20210925055109 62 90 0.0 0.0 0.00 0.00 0.00 65 1013.9
20210925055009 62 90 0.0 0.0 0.00 0.00 0.00 65 1013.9
20210925054909 62 90 0.0 0.0 0.00 0.00 0.00 65 1013.9
20210925054809 62 90 0.0 0.0 0.00 0.00 0.00 65 1013.9
20210925054709 62 90 0.0 0.0 0.00 0.00 0.00 65 1013.9
20210925054609 62 90 0.0 0.0 0.00 0.00 0.00 65 1013.9
20210925054509 62 90 0.0 0.0 0.00 0.00 0.00 65 1013.9
20210925054409 62 90 0.0 0.0 0.00 0.00 0.00 65 1013.9
20210925054309 62 90 0.0 0.0 0.00 0.00 0.00 65 1013.9
20210925054209 62 90 0.0 0.0 0.00 0.00 0.00 65 1013.9
20210925054109 62 90 0.0 0.0 0.00 0.00 0.00 65 1013.9
20210925054009 62 90 0.0 0.0 0.00 0.00 0.00 64 1013.9
20210925053809 63 90 0.0 0.0 0.00 0.00 0.00 64 1013.9
20210925053709 63 90 0.0 0.0 0.00 0.00 0.00 64 1013.9
20210925053609 63 90 0.0 0.0 0.00 0.00 0.00 64 1013.9
20210925053509 63 90 0.0 0.0 0.00 0.00 0.00 64 1013.9
20210925053409 63 90 0.0 0.0 0.00 0.00 0.00 64 1013.9
20210925053309 63 90 0.0 0.0 0.00 0.00 0.00 64 1013.9
20210925053209 63 90 0.0 0.0 0.00 0.00 0.00 64 1013.9
20210925053109 63 90 0.0 0.0 0.00 0.00 0.00 64 1013.9
20210925053009 63 90 0.0 0.0 0.00 0.00 0.00 64 1013.9
20210925052909 63 90 0.0 0.0 0.00 0.00 0.00 64 1013.9
20210925052809 63 90 0.0 0.0 0.00 0.00 0.00 64 1013.9
20210925052709 63 90 0.0 0.0 0.00 0.00 0.00 64 1013.9
20210925052510 63 90 0.0 0.0 0.00 0.00 0.00 63 1013.9
20210925052409 63 90 0.0 0.0 0.00 0.00 0.00 63 1013.9
20210925052309 63 90 0.0 0.0 0.00 0.00 0.00 63 1013.9
20210925052109 63 90 0.0 0.0 0.00 0.00 0.00 63 1013.9
20210925052009 63 90 0.0 0.0 0.00 0.00 0.00 63 1013.9
20210925051909 63 90 0.0 0.0 0.00 0.00 0.00 63 1013.9
20210925051809 63 90 0.0 0.0 0.00 0.00 0.00 63 1013.9
20210925051509 63 90 0.0 0.0 0.00 0.00 0.00 63 1013.9
20210925051409 64 90 0.0 0.0 0.00 0.00 0.00 63 1013.9
20210925051309 64 90 0.0 0.0 0.00 0.00 0.00 63 1013.9
20210925051109 64 90 0.0 0.0 0.00 0.00 0.00 63 1013.9
20210925051009 64 90 1.0 1.0 0.00 0.00 0.00 63 1013.9
20210925050909 64 90 1.0 2.0 0.00 0.00 0.00 63 1013.9
20210925050809 64 90 2.0 1.0 0.00 0.00 0.00 63 1013.9
20210925050709 64 90 2.0 2.0 0.00 0.00 0.00 63 1013.9
20210925050609 64 90 1.0 2.0 0.00 0.00 0.00 63 1013.9
20210925050509 64 90 1.0 1.0 0.00 0.00 0.00 63 1013.9
20210925050409 64 90 1.0 1.0 0.00 0.00 0.00 63 1013.9
20210925050109 64 90 0.0 1.0 0.00 0.00 0.00 63 1013.9
20210925050009 64 90 0.0 0.0 0.00 0.00 0.00 63 1013.9
20210925045809 64 90 0.0 0.0 0.00 0.00 0.00 63 1013.9
20210925045709 64 90 0.0 0.0 0.00 0.00 0.00 62 1013.9
20210925045609 64 90 1.0 1.0 0.00 0.00 0.00 62 1013.9
20210925045509 64 90 1.0 1.0 0.00 0.00 0.00 62 1013.9
20210925045409 64 90 1.0 1.0 0.00 0.00 0.00 62 1013.9
20210925045309 64 90 1.0 1.0 0.00 0.00 0.00 62 1013.9
20210925045209 64 90 1.0 1.0 0.00 0.00 0.00 62 1013.9
20210925045109 64 90 0.0 1.0 0.00 0.00 0.00 62 1013.9
20210925045009 64 90 0.0 0.0 0.00 0.00 0.00 62 1013.9
20210925044909 64 90 0.0 0.0 0.00 0.00 0.00 62 1013.9
20210925044809 64 90 0.0 0.0 0.00 0.00 0.00 62 1013.9
20210925044709 64 90 0.0 0.0 0.00 0.00 0.00 62 1013.9
20210925044609 64 90 0.0 0.0 0.00 0.00 0.00 62 1013.9
20210925044509 64 90 0.0 0.0 0.00 0.00 0.00 62 1013.9
20210925044309 64 90 0.0 0.0 0.00 0.00 0.00 62 1013.9
20210925044009 64 90 0.0 0.0 0.00 0.00 0.00 62 1013.9
20210925043909 64 90 0.0 0.0 0.00 0.00 0.00 62 1013.9
20210925043709 64 90 0.0 0.0 0.00 0.00 0.00 61 1013.9
20210925043609 64 90 0.0 0.0 0.00 0.00 0.00 61 1013.9
20210925043509 64 90 0.0 0.0 0.00 0.00 0.00 61 1013.9
20210925043309 64 90 0.0 0.0 0.00 0.00 0.00 61 1013.9
20210925043209 65 90 1.0 1.0 0.00 0.00 0.00 61 1013.9
20210925043109 65 90 1.0 1.0 0.00 0.00 0.00 61 1013.9
20210925043009 65 90 1.0 1.0 0.00 0.00 0.00 61 1013.9
20210925042909 65 90 1.0 1.0 0.00 0.00 0.00 61 1013.9
20210925042809 65 90 0.0 2.0 0.00 0.00 0.00 61 1013.9
20210925042709 65 45 0.0 0.0 0.00 0.00 0.00 61 1013.9
20210925042609 65 45 0.0 0.0 0.00 0.00 0.00 61 1013.9
20210925042409 65 45 1.0 0.0 0.00 0.00 0.00 61 1013.9
20210925042309 65 45 1.0 1.0 0.00 0.00 0.00 61 1013.9
20210925042209 65 45 1.0 1.0 0.00 0.00 0.00 61 1013.9
20210925042109 65 45 1.0 2.0 0.00 0.00 0.00 61 1013.9
20210925041909 65 45 0.0 0.0 0.00 0.00 0.00 61 1013.9
20210925041809 65 135 0.0 0.0 0.00 0.00 0.00 61 1013.9
20210925041709 65 135 0.0 0.0 0.00 0.00 0.00 61 1013.9
20210925041609 65 135 0.0 1.0 0.00 0.00 0.00 61 1013.9
20210925041509 65 135 0.0 0.0 0.00 0.00 0.00 61 1013.9
20210925041409 65 135 1.0 0.0 0.00 0.00 0.00 61 1013.9
20210925041209 65 135 0.0 1.0 0.00 0.00 0.00 60 1013.9
20210925041109 65 135 0.0 0.0 0.00 0.00 0.00 60 1013.9
20210925041009 65 135 0.0 0.0 0.00 0.00 0.00 61 1013.9
20210925040910 65 135 0.0 0.0 0.00 0.00 0.00 61 1013.9
20210925040809 65 135 0.0 0.0 0.00 0.00 0.00 61 1013.9
20210925040609 65 135 1.0 1.0 0.00 0.00 0.00 61 1013.9
20210925040509 65 135 1.0 1.0 0.00 0.00 0.00 61 1013.9
20210925040309 65 135 1.0 1.0 0.00 0.00 0.00 61 1013.9
20210925040109 65 135 1.0 1.0 0.00 0.00 0.00 60 1013.9
20210925040009 65 135 1.0 1.0 0.00 0.00 0.00 60 1013.9
20210925035909 65 135 1.0 1.0 0.00 0.00 0.00 60 1013.9
20210925035811 65 135 1.0 1.0 0.00 0.00 0.00 60 1013.9
20210925035709 65 135 1.0 1.0 0.00 0.00 0.00 60 1013.9
20210925035609 65 135 0.0 0.0 0.00 0.00 0.00 60 1013.9
20210925035509 65 135 0.0 0.0 0.00 0.00 0.00 60 1013.9
20210925035309 65 135 0.0 0.0 0.00 0.00 0.00 60 1012.9
20210925035209 66 135 0.0 0.0 0.00 0.00 0.00 60 1012.9
20210925035109 66 135 0.0 0.0 0.00 0.00 0.00 60 1012.9
20210925035009 66 135 0.0 0.0 0.00 0.00 0.00 60 1012.9
20210925034909 66 135 0.0 0.0 0.00 0.00 0.00 60 1012.9
20210925034809 66 135 0.0 0.0 0.00 0.00 0.00 60 1012.9
20210925034709 66 135 1.0 0.0 0.00 0.00 0.00 60 1012.9
20210925034509 66 135 1.0 2.0 0.00 0.00 0.00 59 1012.9
20210925034309 66 135 2.0 2.0 0.00 0.00 0.00 59 1012.9
20210925034209 66 135 1.0 1.0 0.00 0.00 0.00 59 1012.9
20210925034109 66 135 0.0 1.0 0.00 0.00 0.00 59 1012.9
20210925034009 66 135 0.0 0.0 0.00 0.00 0.00 59 1012.9
20210925033909 66 135 1.0 0.0 0.00 0.00 0.00 59 1012.9
20210925033811 66 135 1.0 0.0 0.00 0.00 0.00 59 1012.9
20210925033709 66 135 0.0 0.0 0.00 0.00 0.00 59 1012.9
20210925033609 66 135 0.0 0.0 0.00 0.00 0.00 59 1012.9
20210925033509 66 135 0.0 0.0 0.00 0.00 0.00 58 1012.9
20210925033409 66 135 0.0 0.0 0.00 0.00 0.00 58 1012.9
20210925033309 66 135 0.0 0.0 0.00 0.00 0.00 58 1012.9
20210925033209 66 135 0.0 0.0 0.00 0.00 0.00 58 1012.9
20210925033109 66 135 0.0 0.0 0.00 0.00 0.00 58 1012.9
20210925033009 66 135 1.0 0.0 0.00 0.00 0.00 58 1012.9
20210925032909 66 135 1.0 1.0 0.00 0.00 0.00 58 1012.9
20210925032809 66 45 0.0 0.0 0.00 0.00 0.00 58 1012.9
20210925032709 66 45 0.0 0.0 0.00 0.00 0.00 58 1012.9
20210925032609 66 45 0.0 0.0 0.00 0.00 0.00 58 1012.9
20210925032509 66 45 0.0 0.0 0.00 0.00 0.00 58 1012.9
20210925032409 67 45 0.0 0.0 0.00 0.00 0.00 58 1012.9
20210925032309 67 45 0.0 0.0 0.00 0.00 0.00 58 1012.9
20210925032209 67 45 0.0 0.0 0.00 0.00 0.00 58 1012.9
20210925032109 67 45 0.0 0.0 0.00 0.00 0.00 58 1012.9
20210925032009 67 45 0.0 0.0 0.00 0.00 0.00 58 1012.9